PWSweather.com
Personal Weather Stations
Station Observations
KMNHANSK2
Andys Live Weather Stations, Hanska, MN 56041

Andys Live Weather StationsHanska, MN 56041

Lat: 44.170119, Lon: -94.381619

Elevation: 1004

Station Type: Davis Instruments Vantage Pro2 Plus

http://www.madeliasliveweather.com/thompsonfarms/

Latest ConditionsUpdated 8:00:02 AM CST Friday, Mar 6, 2015
Currently Today's Max Today's Min Today's Average
Temperature 16.9°F-8.4°C 16.9°F-8.4°C 13.0°F-10.6°C 14.0°F-10.0°C
Dew Point 12.6°F-10.8°C 12.6°F-10.8°C 7.6°F-13.6°C 8.9°F-12.8°C
Winds 6.0 mph S9.7 kmh S 18.0 mph S29.0 kmh S - 10.3 mph 16.6 kmh
Wind Gusts 8.0 mph12.9 kmh 21.0 mph33.8 kmh - -
Humidity 83% 84% 77% 79%
Pressure 30.17 in1021.7 mb 30.33 in1027.1 mb 30.16 in1021.3 mb -
Hour Temp Dew Point Humidity Winds Wind Gusts Pressure Precip Precip Rate Daily Precip Total
08:00 AM 16.9°F-8.4°C 12.6°F-10.8°C 83% 6.0 mph S9.7 kmh S 8.0 mph12.9 kmh 30.17 in1021.7 mb 0.00 in0.0 mm 0.00 in/hr0.0 mm/hr 0.00 in0.0 mm
07:59 AM 16.8°F-8.4°C 12.3°F-10.9°C 82% 6.0 mph SSW9.7 kmh SSW 8.0 mph12.9 kmh 30.16 in1021.3 mb 0.00 in0.0 mm 0.00 in/hr0.0 mm/hr 0.00 in0.0 mm
07:58 AM 16.7°F-8.5°C 12.5°F-10.8°C 83% 6.0 mph S9.7 kmh S 8.0 mph12.9 kmh 30.16 in1021.3 mb 0.00 in0.0 mm 0.00 in/hr0.0 mm/hr 0.00 in0.0 mm
07:57 AM 16.6°F-8.6°C 12.4°F-10.9°C 83% 7.0 mph S11.3 kmh S 8.0 mph12.9 kmh 30.16 in1021.3 mb 0.00 in0.0 mm 0.00 in/hr0.0 mm/hr 0.00 in0.0 mm
07:56 AM 16.5°F-8.6°C 12.3°F-10.9°C 83% 6.0 mph S9.7 kmh S 8.0 mph12.9 kmh 30.16 in1021.3 mb 0.00 in0.0 mm 0.00 in/hr0.0 mm/hr 0.00 in0.0 mm
07:55 AM 16.4°F-8.7°C 12.2°F-11.0°C 83% 6.0 mph S9.7 kmh S 8.0 mph12.9 kmh 30.16 in1021.3 mb 0.00 in0.0 mm 0.00 in/hr0.0 mm/hr 0.00 in0.0 mm
07:54 AM 16.3°F-8.7°C 12.1°F-11.1°C 83% 7.0 mph SSW11.3 kmh SSW 8.0 mph12.9 kmh 30.16 in1021.3 mb 0.00 in0.0 mm 0.00 in/hr0.0 mm/hr 0.00 in0.0 mm
07:53 AM 16.2°F-8.8°C 12.0°F-11.1°C 83% 7.0 mph S11.3 kmh S 8.0 mph12.9 kmh 30.16 in1021.3 mb 0.00 in0.0 mm 0.00 in/hr0.0 mm/hr 0.00 in0.0 mm
07:52 AM 16.1°F-8.8°C 11.9°F-11.2°C 83% 5.0 mph S8.0 kmh S 8.0 mph12.9 kmh 30.16 in1021.3 mb 0.00 in0.0 mm 0.00 in/hr0.0 mm/hr 0.00 in0.0 mm
07:51 AM 15.9°F-8.9°C 11.7°F-11.3°C 83% 6.0 mph S9.7 kmh S 8.0 mph12.9 kmh 30.16 in1021.3 mb 0.00 in0.0 mm 0.00 in/hr0.0 mm/hr 0.00 in0.0 mm
07:50 AM 15.8°F-9.0°C 11.6°F-11.3°C 83% 5.0 mph S8.0 kmh S 8.0 mph12.9 kmh 30.16 in1021.3 mb 0.00 in0.0 mm 0.00 in/hr0.0 mm/hr 0.00 in0.0 mm
07:49 AM 15.7°F-9.1°C 11.5°F-11.4°C 83% 5.0 mph S8.0 kmh S 8.0 mph12.9 kmh 30.16 in1021.3 mb 0.00 in0.0 mm 0.00 in/hr0.0 mm/hr 0.00 in0.0 mm
07:48 AM 15.6°F-9.1°C 11.4°F-11.4°C 83% 6.0 mph S9.7 kmh S 8.0 mph12.9 kmh 30.16 in1021.3 mb 0.00 in0.0 mm 0.00 in/hr0.0 mm/hr 0.00 in0.0 mm
07:47 AM 15.5°F-9.2°C 11.3°F-11.5°C 83% 5.0 mph S8.0 kmh S 8.0 mph12.9 kmh 30.16 in1021.3 mb 0.00 in0.0 mm 0.00 in/hr0.0 mm/hr 0.00 in0.0 mm
07:46 AM 15.4°F-9.2°C 11.2°F-11.6°C 83% 6.0 mph S9.7 kmh S 8.0 mph12.9 kmh 30.16 in1021.3 mb 0.00 in0.0 mm 0.00 in/hr0.0 mm/hr 0.00 in0.0 mm
07:45 AM 15.3°F-9.3°C 11.3°F-11.5°C 84% 6.0 mph S9.7 kmh S 8.0 mph12.9 kmh 30.16 in1021.3 mb 0.00 in0.0 mm 0.00 in/hr0.0 mm/hr 0.00 in0.0 mm
07:44 AM 15.3°F-9.3°C 11.3°F-11.5°C 84% 7.0 mph S11.3 kmh S 8.0 mph12.9 kmh 30.16 in1021.3 mb 0.00 in0.0 mm 0.00 in/hr0.0 mm/hr 0.00 in0.0 mm
07:43 AM 15.1°F-9.4°C 11.2°F-11.6°C 84% 6.0 mph S9.7 kmh S 8.0 mph12.9 kmh 30.16 in1021.3 mb 0.00 in0.0 mm 0.00 in/hr0.0 mm/hr 0.00 in0.0 mm
07:42 AM 15.0°F-9.4°C 11.1°F-11.6°C 84% 7.0 mph S11.3 kmh S 8.0 mph12.9 kmh 30.16 in1021.3 mb 0.00 in0.0 mm 0.00 in/hr0.0 mm/hr 0.00 in0.0 mm
07:41 AM 14.9°F-9.5°C 11.0°F-11.7°C 84% 6.0 mph S9.7 kmh S 7.0 mph11.3 kmh 30.16 in1021.3 mb 0.00 in0.0 mm 0.00 in/hr0.0 mm/hr 0.00 in0.0 mm
07:40 AM 14.8°F-9.6°C 10.9°F-11.7°C 84% 5.0 mph S8.0 kmh S 7.0 mph11.3 kmh 30.16 in1021.3 mb 0.00 in0.0 mm 0.00 in/hr0.0 mm/hr 0.00 in0.0 mm
07:39 AM 14.8°F-9.6°C 10.9°F-11.7°C 84% 5.0 mph S8.0 kmh S 7.0 mph11.3 kmh 30.16 in1021.3 mb 0.00 in0.0 mm 0.00 in/hr0.0 mm/hr 0.00 in0.0 mm
07:38 AM 14.7°F-9.6°C 10.8°F-11.8°C 84% 5.0 mph S8.0 kmh S 7.0 mph11.3 kmh 30.16 in1021.3 mb 0.00 in0.0 mm 0.00 in/hr0.0 mm/hr 0.00 in0.0 mm
07:37 AM 14.6°F-9.7°C 10.7°F-11.8°C 84% 5.0 mph S8.0 kmh S 7.0 mph11.3 kmh 30.16 in1021.3 mb 0.00 in0.0 mm 0.00 in/hr0.0 mm/hr 0.00 in0.0 mm
07:36 AM 14.5°F-9.7°C 10.6°F-11.9°C 84% 5.0 mph S8.0 kmh S 7.0 mph11.3 kmh 30.16 in1021.3 mb 0.00 in0.0 mm 0.00 in/hr0.0 mm/hr 0.00 in0.0 mm
07:35 AM 14.4°F-9.8°C 10.5°F-11.9°C 84% 5.0 mph S8.0 kmh S 7.0 mph11.3 kmh 30.16 in1021.3 mb 0.00 in0.0 mm 0.00 in/hr0.0 mm/hr 0.00 in0.0 mm
07:34 AM 14.3°F-9.8°C 10.4°F-12.0°C 84% 5.0 mph S8.0 kmh S 7.0 mph11.3 kmh 30.17 in1021.7 mb 0.00 in0.0 mm 0.00 in/hr0.0 mm/hr 0.00 in0.0 mm
07:33 AM 14.2°F-9.9°C 10.3°F-12.1°C 84% 5.0 mph S8.0 kmh S 7.0 mph11.3 kmh 30.16 in1021.3 mb 0.00 in0.0 mm 0.00 in/hr0.0 mm/hr 0.00 in0.0 mm
07:32 AM 14.1°F-9.9°C 10.2°F-12.1°C 84% 4.0 mph S6.4 kmh S 7.0 mph11.3 kmh 30.17 in1021.7 mb 0.00 in0.0 mm 0.00 in/hr0.0 mm/hr 0.00 in0.0 mm
07:31 AM 14.1°F-9.9°C 10.2°F-12.1°C 84% 5.0 mph S8.0 kmh S 10.0 mph16.1 kmh 30.17 in1021.7 mb 0.00 in0.0 mm 0.00 in/hr0.0 mm/hr 0.00 in0.0 mm
07:30 AM 14.0°F-10.0°C 10.1°F-12.2°C 84% 4.0 mph S6.4 kmh S 10.0 mph16.1 kmh 30.17 in1021.7 mb 0.00 in0.0 mm 0.00 in/hr0.0 mm/hr 0.00 in0.0 mm
07:29 AM 13.9°F-10.1°C 10.0°F-12.2°C 84% 5.0 mph S8.0 kmh S 10.0 mph16.1 kmh 30.17 in1021.7 mb 0.00 in0.0 mm 0.00 in/hr0.0 mm/hr 0.00 in0.0 mm
07:28 AM 13.9°F-10.1°C 10.0°F-12.2°C 84% 5.0 mph S8.0 kmh S 10.0 mph16.1 kmh 30.17 in1021.7 mb 0.00 in0.0 mm 0.00 in/hr0.0 mm/hr 0.00 in0.0 mm
07:27 AM 13.8°F-10.1°C 9.9°F-12.3°C 84% 4.0 mph S6.4 kmh S 10.0 mph16.1 kmh 30.17 in1021.7 mb 0.00 in0.0 mm 0.00 in/hr0.0 mm/hr 0.00 in0.0 mm
07:26 AM 13.8°F-10.1°C 9.9°F-12.3°C 84% 6.0 mph S9.7 kmh S 10.0 mph16.1 kmh 30.17 in1021.7 mb 0.00 in0.0 mm 0.00 in/hr0.0 mm/hr 0.00 in0.0 mm
07:25 AM 13.7°F-10.2°C 9.8°F-12.3°C 84% 4.0 mph S6.4 kmh S 10.0 mph16.1 kmh 30.17 in1021.7 mb 0.00 in0.0 mm 0.00 in/hr0.0 mm/hr 0.00 in0.0 mm
07:24 AM 13.7°F-10.2°C 9.8°F-12.3°C 84% 4.0 mph S6.4 kmh S 10.0 mph16.1 kmh 30.17 in1021.7 mb 0.00 in0.0 mm 0.00 in/hr0.0 mm/hr 0.00 in0.0 mm
07:23 AM 13.7°F-10.2°C 9.8°F-12.3°C 84% 6.0 mph S9.7 kmh S 10.0 mph16.1 kmh 30.17 in1021.7 mb 0.00 in0.0 mm 0.00 in/hr0.0 mm/hr 0.00 in0.0 mm
07:22 AM 13.6°F-10.2°C 9.7°F-12.4°C 84% 5.0 mph S8.0 kmh S 10.0 mph16.1 kmh 30.17 in1021.7 mb 0.00 in0.0 mm 0.00 in/hr0.0 mm/hr 0.00 in0.0 mm
07:21 AM 13.6°F-10.2°C 9.7°F-12.4°C 84% 4.0 mph S6.4 kmh S 10.0 mph16.1 kmh 30.17 in1021.7 mb 0.00 in0.0 mm 0.00 in/hr0.0 mm/hr 0.00 in0.0 mm
07:20 AM 13.6°F-10.2°C 9.7°F-12.4°C 84% 4.0 mph S6.4 kmh S 10.0 mph16.1 kmh 30.17 in1021.7 mb 0.00 in0.0 mm 0.00 in/hr0.0 mm/hr 0.00 in0.0 mm
07:19 AM 13.5°F-10.3°C 9.6°F-12.4°C 84% 5.0 mph S8.0 kmh S 10.0 mph16.1 kmh 30.17 in1021.7 mb 0.00 in0.0 mm 0.00 in/hr0.0 mm/hr 0.00 in0.0 mm
07:18 AM 13.5°F-10.3°C 9.6°F-12.4°C 84% 5.0 mph S8.0 kmh S 10.0 mph16.1 kmh 30.17 in1021.7 mb 0.00 in0.0 mm 0.00 in/hr0.0 mm/hr 0.00 in0.0 mm
07:17 AM 13.4°F-10.3°C 9.5°F-12.5°C 84% 5.0 mph S8.0 kmh S 10.0 mph16.1 kmh 30.17 in1021.7 mb 0.00 in0.0 mm 0.00 in/hr0.0 mm/hr 0.00 in0.0 mm
07:16 AM 13.4°F-10.3°C 9.5°F-12.5°C 84% 5.0 mph S8.0 kmh S 10.0 mph16.1 kmh 30.17 in1021.7 mb 0.00 in0.0 mm 0.00 in/hr0.0 mm/hr 0.00 in0.0 mm
07:15 AM 13.4°F-10.3°C 9.5°F-12.5°C 84% 5.0 mph S8.0 kmh S 10.0 mph16.1 kmh 30.17 in1021.7 mb 0.00 in0.0 mm 0.00 in/hr0.0 mm/hr 0.00 in0.0 mm
07:14 AM 13.4°F-10.3°C 9.5°F-12.5°C 84% 6.0 mph S9.7 kmh S 10.0 mph16.1 kmh 30.17 in1021.7 mb 0.00 in0.0 mm 0.00 in/hr0.0 mm/hr 0.00 in0.0 mm
07:13 AM 13.3°F-10.4°C 9.4°F-12.6°C 84% 6.0 mph SSW9.7 kmh SSW 10.0 mph16.1 kmh 30.17 in1021.7 mb 0.00 in0.0 mm 0.00 in/hr0.0 mm/hr 0.00 in0.0 mm
07:12 AM 13.2°F-10.4°C 9.3°F-12.6°C 84% 6.0 mph S9.7 kmh S 10.0 mph16.1 kmh 30.16 in1021.3 mb 0.00 in0.0 mm 0.00 in/hr0.0 mm/hr 0.00 in0.0 mm
07:11 AM 13.2°F-10.4°C 9.3°F-12.6°C 84% 6.0 mph S9.7 kmh S 10.0 mph16.1 kmh 30.16 in1021.3 mb 0.00 in0.0 mm 0.00 in/hr0.0 mm/hr 0.00 in0.0 mm
07:10 AM 13.2°F-10.4°C 9.3°F-12.6°C 84% 7.0 mph S11.3 kmh S 10.0 mph16.1 kmh 30.16 in1021.3 mb 0.00 in0.0 mm 0.00 in/hr0.0 mm/hr 0.00 in0.0 mm
07:09 AM 13.1°F-10.5°C 9.2°F-12.7°C 84% 6.0 mph S9.7 kmh S 10.0 mph16.1 kmh 30.16 in1021.3 mb 0.00 in0.0 mm 0.00 in/hr0.0 mm/hr 0.00 in0.0 mm
07:08 AM 13.1°F-10.5°C 9.2°F-12.7°C 84% 7.0 mph SSW11.3 kmh SSW 10.0 mph16.1 kmh 30.16 in1021.3 mb 0.00 in0.0 mm 0.00 in/hr0.0 mm/hr 0.00 in0.0 mm
07:07 AM 13.0°F-10.6°C 8.8°F-12.9°C 83% 6.0 mph S9.7 kmh S 10.0 mph16.1 kmh 30.16 in1021.3 mb 0.00 in0.0 mm 0.00 in/hr0.0 mm/hr 0.00 in0.0 mm
07:06 AM 13.0°F-10.6°C 8.8°F-12.9°C 83% 9.0 mph S14.5 kmh S 10.0 mph16.1 kmh 30.16 in1021.3 mb 0.00 in0.0 mm 0.00 in/hr0.0 mm/hr 0.00 in0.0 mm
07:05 AM 13.0°F-10.6°C 8.8°F-12.9°C 83% 8.0 mph S12.9 kmh S 10.0 mph16.1 kmh 30.16 in1021.3 mb 0.00 in0.0 mm 0.00 in/hr0.0 mm/hr 0.00 in0.0 mm
07:04 AM 13.0°F-10.6°C 8.8°F-12.9°C 83% 9.0 mph S14.5 kmh S 10.0 mph16.1 kmh 30.16 in1021.3 mb 0.00 in0.0 mm 0.00 in/hr0.0 mm/hr 0.00 in0.0 mm
07:03 AM 13.0°F-10.6°C 8.8°F-12.9°C 83% 7.0 mph S11.3 kmh S 10.0 mph16.1 kmh 30.16 in1021.3 mb 0.00 in0.0 mm 0.00 in/hr0.0 mm/hr 0.00 in0.0 mm
07:02 AM 13.0°F-10.6°C 8.8°F-12.9°C 83% 10.0 mph S16.1 kmh S 10.0 mph16.1 kmh 30.16 in1021.3 mb 0.00 in0.0 mm 0.00 in/hr0.0 mm/hr 0.00 in0.0 mm
07:01 AM 13.0°F-10.6°C 8.8°F-12.9°C 83% 7.0 mph S11.3 kmh S 11.0 mph17.7 kmh 30.16 in1021.3 mb 0.00 in0.0 mm 0.00 in/hr0.0 mm/hr 0.00 in0.0 mm
07:00 AM 13.0°F-10.6°C 8.8°F-12.9°C 83% 7.0 mph S11.3 kmh S 11.0 mph17.7 kmh 30.16 in1021.3 mb 0.00 in0.0 mm 0.00 in/hr0.0 mm/hr 0.00 in0.0 mm
06:59 AM 13.0°F-10.6°C 8.8°F-12.9°C 83% 7.0 mph S11.3 kmh S 11.0 mph17.7 kmh 30.17 in1021.7 mb 0.00 in0.0 mm 0.00 in/hr0.0 mm/hr 0.00 in0.0 mm
06:58 AM 13.0°F-10.6°C 8.8°F-12.9°C 83% 7.0 mph S11.3 kmh S 11.0 mph17.7 kmh 30.16 in1021.3 mb 0.00 in0.0 mm 0.00 in/hr0.0 mm/hr 0.00 in0.0 mm
06:57 AM 13.0°F-10.6°C 8.8°F-12.9°C 83% 6.0 mph S9.7 kmh S 11.0 mph17.7 kmh 30.16 in1021.3 mb 0.00 in0.0 mm 0.00 in/hr0.0 mm/hr 0.00 in0.0 mm
06:56 AM 13.1°F-10.5°C 8.9°F-12.8°C 83% 9.0 mph S14.5 kmh S 11.0 mph17.7 kmh 30.16 in1021.3 mb 0.00 in0.0 mm 0.00 in/hr0.0 mm/hr 0.00 in0.0 mm
06:55 AM 13.1°F-10.5°C 8.9°F-12.8°C 83% 7.0 mph S11.3 kmh S 11.0 mph17.7 kmh 30.16 in1021.3 mb 0.00 in0.0 mm 0.00 in/hr0.0 mm/hr 0.00 in0.0 mm
06:54 AM 13.0°F-10.6°C 8.8°F-12.9°C 83% 8.0 mph S12.9 kmh S 11.0 mph17.7 kmh 30.17 in1021.7 mb 0.00 in0.0 mm 0.00 in/hr0.0 mm/hr 0.00 in0.0 mm
06:53 AM 13.1°F-10.5°C 8.9°F-12.8°C 83% 6.0 mph S9.7 kmh S 11.0 mph17.7 kmh 30.17 in1021.7 mb 0.00 in0.0 mm 0.00 in/hr0.0 mm/hr 0.00 in0.0 mm
06:52 AM 13.1°F-10.5°C 8.9°F-12.8°C 83% 8.0 mph S12.9 kmh S 11.0 mph17.7 kmh 30.17 in1021.7 mb 0.00 in0.0 mm 0.00 in/hr0.0 mm/hr 0.00 in0.0 mm
06:51 AM 13.1°F-10.5°C 8.9°F-12.8°C 83% 7.0 mph S11.3 kmh S 11.0 mph17.7 kmh 30.16 in1021.3 mb 0.00 in0.0 mm 0.00 in/hr0.0 mm/hr 0.00 in0.0 mm
06:50 AM 13.1°F-10.5°C 8.9°F-12.8°C 83% 8.0 mph S12.9 kmh S 11.0 mph17.7 kmh 30.17 in1021.7 mb 0.00 in0.0 mm 0.00 in/hr0.0 mm/hr 0.00 in0.0 mm
06:49 AM 13.1°F-10.5°C 8.9°F-12.8°C 83% 7.0 mph S11.3 kmh S 11.0 mph17.7 kmh 30.17 in1021.7 mb 0.00 in0.0 mm 0.00 in/hr0.0 mm/hr 0.00 in0.0 mm
06:48 AM 13.1°F-10.5°C 8.9°F-12.8°C 83% 7.0 mph S11.3 kmh S 11.0 mph17.7 kmh 30.17 in1021.7 mb 0.00 in0.0 mm 0.00 in/hr0.0 mm/hr 0.00 in0.0 mm
06:47 AM 13.1°F-10.5°C 8.9°F-12.8°C 83% 9.0 mph S14.5 kmh S 10.0 mph16.1 kmh 30.17 in1021.7 mb 0.00 in0.0 mm 0.00 in/hr0.0 mm/hr 0.00 in0.0 mm
06:46 AM 13.0°F-10.6°C 8.8°F-12.9°C 83% 9.0 mph S14.5 kmh S 9.0 mph14.5 kmh 30.17 in1021.7 mb 0.00 in0.0 mm 0.00 in/hr0.0 mm/hr 0.00 in0.0 mm
06:45 AM 13.1°F-10.5°C 8.9°F-12.8°C 83% 7.0 mph S11.3 kmh S 9.0 mph14.5 kmh 30.17 in1021.7 mb 0.00 in0.0 mm 0.00 in/hr0.0 mm/hr 0.00 in0.0 mm
06:44 AM 13.0°F-10.6°C 8.8°F-12.9°C 83% 6.0 mph S9.7 kmh S 9.0 mph14.5 kmh 30.17 in1021.7 mb 0.00 in0.0 mm 0.00 in/hr0.0 mm/hr 0.00 in0.0 mm
06:43 AM 13.1°F-10.5°C 8.9°F-12.8°C 83% 8.0 mph S12.9 kmh S 9.0 mph14.5 kmh 30.17 in1021.7 mb 0.00 in0.0 mm 0.00 in/hr0.0 mm/hr 0.00 in0.0 mm
06:42 AM 13.1°F-10.5°C 8.7°F-12.9°C 82% 8.0 mph S12.9 kmh S 9.0 mph14.5 kmh 30.17 in1021.7 mb 0.00 in0.0 mm 0.00 in/hr0.0 mm/hr 0.00 in0.0 mm
06:41 AM 13.1°F-10.5°C 8.7°F-12.9°C 82% 8.0 mph S12.9 kmh S 9.0 mph14.5 kmh 30.17 in1021.7 mb 0.00 in0.0 mm 0.00 in/hr0.0 mm/hr 0.00 in0.0 mm
06:40 AM 13.1°F-10.5°C 8.7°F-12.9°C 82% 9.0 mph S14.5 kmh S 9.0 mph14.5 kmh 30.17 in1021.7 mb 0.00 in0.0 mm 0.00 in/hr0.0 mm/hr 0.00 in0.0 mm
06:39 AM 13.1°F-10.5°C 8.7°F-12.9°C 82% 8.0 mph S12.9 kmh S 9.0 mph14.5 kmh 30.17 in1021.7 mb 0.00 in0.0 mm 0.00 in/hr0.0 mm/hr 0.00 in0.0 mm
06:38 AM 13.2°F-10.4°C 8.8°F-12.9°C 82% 7.0 mph S11.3 kmh S 9.0 mph14.5 kmh 30.17 in1021.7 mb 0.00 in0.0 mm 0.00 in/hr0.0 mm/hr 0.00 in0.0 mm
06:37 AM 13.2°F-10.4°C 8.8°F-12.9°C 82% 7.0 mph S11.3 kmh S 9.0 mph14.5 kmh 30.17 in1021.7 mb 0.00 in0.0 mm 0.00 in/hr0.0 mm/hr 0.00 in0.0 mm
06:36 AM 13.2°F-10.4°C 8.8°F-12.9°C 82% 8.0 mph S12.9 kmh S 9.0 mph14.5 kmh 30.17 in1021.7 mb 0.00 in0.0 mm 0.00 in/hr0.0 mm/hr 0.00 in0.0 mm
06:35 AM 13.3°F-10.4°C 8.8°F-12.9°C 82% 7.0 mph S11.3 kmh S 9.0 mph14.5 kmh 30.17 in1021.7 mb 0.00 in0.0 mm 0.00 in/hr0.0 mm/hr 0.00 in0.0 mm
06:34 AM 13.4°F-10.3°C 8.9°F-12.8°C 82% 8.0 mph S12.9 kmh S 9.0 mph14.5 kmh 30.17 in1021.7 mb 0.00 in0.0 mm 0.00 in/hr0.0 mm/hr 0.00 in0.0 mm
06:33 AM 13.4°F-10.3°C 8.9°F-12.8°C 82% 9.0 mph S14.5 kmh S 9.0 mph14.5 kmh 30.18 in1022.0 mb 0.00 in0.0 mm 0.00 in/hr0.0 mm/hr 0.00 in0.0 mm
06:32 AM 13.4°F-10.3°C 8.9°F-12.8°C 82% 7.0 mph S11.3 kmh S 8.0 mph12.9 kmh 30.17 in1021.7 mb 0.00 in0.0 mm 0.00 in/hr0.0 mm/hr 0.00 in0.0 mm
06:31 AM 13.5°F-10.3°C 9.0°F-12.8°C 82% 7.0 mph S11.3 kmh S 10.0 mph16.1 kmh 30.17 in1021.7 mb 0.00 in0.0 mm 0.00 in/hr0.0 mm/hr 0.00 in0.0 mm
06:30 AM 13.5°F-10.3°C 9.0°F-12.8°C 82% 7.0 mph S11.3 kmh S 10.0 mph16.1 kmh 30.18 in1022.0 mb 0.00 in0.0 mm 0.00 in/hr0.0 mm/hr 0.00 in0.0 mm
06:29 AM 13.5°F-10.3°C 9.0°F-12.8°C 82% 7.0 mph S11.3 kmh S 10.0 mph16.1 kmh 30.18 in1022.0 mb 0.00 in0.0 mm 0.00 in/hr0.0 mm/hr 0.00 in0.0 mm
06:28 AM 13.5°F-10.3°C 9.0°F-12.8°C 82% 7.0 mph S11.3 kmh S 10.0 mph16.1 kmh 30.18 in1022.0 mb 0.00 in0.0 mm 0.00 in/hr0.0 mm/hr 0.00 in0.0 mm
06:27 AM 13.6°F-10.2°C 9.1°F-12.7°C 82% 8.0 mph S12.9 kmh S 9.0 mph14.5 kmh 30.18 in1022.0 mb 0.00 in0.0 mm 0.00 in/hr0.0 mm/hr 0.00 in0.0 mm
06:26 AM 13.6°F-10.2°C 9.1°F-12.7°C 82% 8.0 mph S12.9 kmh S 9.0 mph14.5 kmh 30.18 in1022.0 mb 0.00 in0.0 mm 0.00 in/hr0.0 mm/hr 0.00 in0.0 mm
06:25 AM 13.6°F-10.2°C 9.1°F-12.7°C 82% 8.0 mph S12.9 kmh S 9.0 mph14.5 kmh 30.18 in1022.0 mb 0.00 in0.0 mm 0.00 in/hr0.0 mm/hr 0.00 in0.0 mm
06:24 AM 13.6°F-10.2°C 9.1°F-12.7°C 82% 7.0 mph SSW11.3 kmh SSW 9.0 mph14.5 kmh 30.18 in1022.0 mb 0.00 in0.0 mm 0.00 in/hr0.0 mm/hr 0.00 in0.0 mm
06:23 AM 13.6°F-10.2°C 9.1°F-12.7°C 82% 7.0 mph S11.3 kmh S 9.0 mph14.5 kmh 30.18 in1022.0 mb 0.00 in0.0 mm 0.00 in/hr0.0 mm/hr 0.00 in0.0 mm
06:22 AM 13.7°F-10.2°C 9.2°F-12.7°C 82% 7.0 mph S11.3 kmh S 9.0 mph14.5 kmh 30.18 in1022.0 mb 0.00 in0.0 mm 0.00 in/hr0.0 mm/hr 0.00 in0.0 mm
06:21 AM 13.7°F-10.2°C 9.2°F-12.7°C 82% 7.0 mph S11.3 kmh S 9.0 mph14.5 kmh 30.18 in1022.0 mb 0.00 in0.0 mm 0.00 in/hr0.0 mm/hr 0.00 in0.0 mm
06:20 AM 13.7°F-10.2°C 9.2°F-12.7°C 82% 9.0 mph S14.5 kmh S 9.0 mph14.5 kmh 30.18 in1022.0 mb 0.00 in0.0 mm 0.00 in/hr0.0 mm/hr 0.00 in0.0 mm
06:19 AM 13.7°F-10.2°C 9.2°F-12.7°C 82% 7.0 mph S11.3 kmh S 9.0 mph14.5 kmh 30.18 in1022.0 mb 0.00 in0.0 mm 0.00 in/hr0.0 mm/hr 0.00 in0.0 mm
06:18 AM 13.7°F-10.2°C 9.0°F-12.8°C 81% 7.0 mph S11.3 kmh S 9.0 mph14.5 kmh 30.18 in1022.0 mb 0.00 in0.0 mm 0.00 in/hr0.0 mm/hr 0.00 in0.0 mm
06:17 AM 13.8°F-10.1°C 9.1°F-12.7°C 81% 6.0 mph S9.7 kmh S 9.0 mph14.5 kmh 30.18 in1022.0 mb 0.00 in0.0 mm 0.00 in/hr0.0 mm/hr 0.00 in0.0 mm
06:16 AM 13.8°F-10.1°C 9.1°F-12.7°C 81% 7.0 mph S11.3 kmh S 9.0 mph14.5 kmh 30.18 in1022.0 mb 0.00 in0.0 mm 0.00 in/hr0.0 mm/hr 0.00 in0.0 mm
06:15 AM 13.8°F-10.1°C 9.1°F-12.7°C 81% 6.0 mph S9.7 kmh S 9.0 mph14.5 kmh 30.18 in1022.0 mb 0.00 in0.0 mm 0.00 in/hr0.0 mm/hr 0.00 in0.0 mm
06:14 AM 13.8°F-10.1°C 9.1°F-12.7°C 81% 6.0 mph S9.7 kmh S 9.0 mph14.5 kmh 30.18 in1022.0 mb 0.00 in0.0 mm 0.00 in/hr0.0 mm/hr 0.00 in0.0 mm
06:13 AM 13.8°F-10.1°C 9.1°F-12.7°C 81% 6.0 mph S9.7 kmh S 9.0 mph14.5 kmh 30.18 in1022.0 mb 0.00 in0.0 mm 0.00 in/hr0.0 mm/hr 0.00 in0.0 mm
06:12 AM 13.9°F-10.1°C 9.2°F-12.7°C 81% 7.0 mph S11.3 kmh S 8.0 mph12.9 kmh 30.18 in1022.0 mb 0.00 in0.0 mm 0.00 in/hr0.0 mm/hr 0.00 in0.0 mm
06:11 AM 13.9°F-10.1°C 9.2°F-12.7°C 81% 7.0 mph S11.3 kmh S 8.0 mph12.9 kmh 30.18 in1022.0 mb 0.00 in0.0 mm 0.00 in/hr0.0 mm/hr 0.00 in0.0 mm
06:10 AM 13.9°F-10.1°C 9.2°F-12.7°C 81% 7.0 mph S11.3 kmh S 8.0 mph12.9 kmh 30.18 in1022.0 mb 0.00 in0.0 mm 0.00 in/hr0.0 mm/hr 0.00 in0.0 mm
06:09 AM 14.0°F-10.0°C 9.3°F-12.6°C 81% 6.0 mph S9.7 kmh S 8.0 mph12.9 kmh 30.18 in1022.0 mb 0.00 in0.0 mm 0.00 in/hr0.0 mm/hr 0.00 in0.0 mm
06:08 AM 14.0°F-10.0°C 9.3°F-12.6°C 81% 5.0 mph S8.0 kmh S 8.0 mph12.9 kmh 30.18 in1022.0 mb 0.00 in0.0 mm 0.00 in/hr0.0 mm/hr 0.00 in0.0 mm
06:07 AM 14.0°F-10.0°C 9.3°F-12.6°C 81% 8.0 mph S12.9 kmh S 8.0 mph12.9 kmh 30.18 in1022.0 mb 0.00 in0.0 mm 0.00 in/hr0.0 mm/hr 0.00 in0.0 mm
06:06 AM 14.0°F-10.0°C 9.3°F-12.6°C 81% 6.0 mph S9.7 kmh S 8.0 mph12.9 kmh 30.18 in1022.0 mb 0.00 in0.0 mm 0.00 in/hr0.0 mm/hr 0.00 in0.0 mm
06:05 AM 14.0°F-10.0°C 9.3°F-12.6°C 81% 5.0 mph S8.0 kmh S 8.0 mph12.9 kmh 30.19 in1022.4 mb 0.00 in0.0 mm 0.00 in/hr0.0 mm/hr 0.00 in0.0 mm
06:04 AM 14.1°F-9.9°C 9.4°F-12.6°C 81% 7.0 mph S11.3 kmh S 8.0 mph12.9 kmh 30.18 in1022.0 mb 0.00 in0.0 mm 0.00 in/hr0.0 mm/hr 0.00 in0.0 mm
06:03 AM 14.1°F-9.9°C 9.4°F-12.6°C 81% 7.0 mph S11.3 kmh S 8.0 mph12.9 kmh 30.19 in1022.4 mb 0.00 in0.0 mm 0.00 in/hr0.0 mm/hr 0.00 in0.0 mm
06:02 AM 14.1°F-9.9°C 9.4°F-12.6°C 81% 6.0 mph S9.7 kmh S 7.0 mph11.3 kmh 30.19 in1022.4 mb 0.00 in0.0 mm 0.00 in/hr0.0 mm/hr 0.00 in0.0 mm
06:01 AM 14.1°F-9.9°C 9.4°F-12.6°C 81% 6.0 mph S9.7 kmh S 12.0 mph19.3 kmh 30.19 in1022.4 mb 0.00 in0.0 mm 0.00 in/hr0.0 mm/hr 0.00 in0.0 mm
06:00 AM 14.1°F-9.9°C 9.4°F-12.6°C 81% 7.0 mph S11.3 kmh S 12.0 mph19.3 kmh 30.18 in1022.0 mb 0.00 in0.0 mm 0.00 in/hr0.0 mm/hr 0.00 in0.0 mm
05:59 AM 14.2°F-9.9°C 9.5°F-12.5°C 81% 7.0 mph S11.3 kmh S 12.0 mph19.3 kmh 30.19 in1022.4 mb 0.00 in0.0 mm 0.00 in/hr0.0 mm/hr 0.00 in0.0 mm
05:58 AM 14.2°F-9.9°C 9.5°F-12.5°C 81% 7.0 mph S11.3 kmh S 12.0 mph19.3 kmh 30.18 in1022.0 mb 0.00 in0.0 mm 0.00 in/hr0.0 mm/hr 0.00 in0.0 mm
05:57 AM 14.2°F-9.9°C 9.5°F-12.5°C 81% 8.0 mph S12.9 kmh S 12.0 mph19.3 kmh 30.18 in1022.0 mb 0.00 in0.0 mm 0.00 in/hr0.0 mm/hr 0.00 in0.0 mm
05:56 AM 14.3°F-9.8°C 9.6°F-12.4°C 81% 8.0 mph S12.9 kmh S 12.0 mph19.3 kmh 30.18 in1022.0 mb 0.00 in0.0 mm 0.00 in/hr0.0 mm/hr 0.00 in0.0 mm
05:55 AM 14.3°F-9.8°C 9.6°F-12.4°C 81% 9.0 mph S14.5 kmh S 12.0 mph19.3 kmh 30.18 in1022.0 mb 0.00 in0.0 mm 0.00 in/hr0.0 mm/hr 0.00 in0.0 mm
05:54 AM 14.3°F-9.8°C 9.6°F-12.4°C 81% 6.0 mph S9.7 kmh S 12.0 mph19.3 kmh 30.19 in1022.4 mb 0.00 in0.0 mm 0.00 in/hr0.0 mm/hr 0.00 in0.0 mm
05:53 AM 14.3°F-9.8°C 9.6°F-12.4°C 81% 6.0 mph S9.7 kmh S 12.0 mph19.3 kmh 30.19 in1022.4 mb 0.00 in0.0 mm 0.00 in/hr0.0 mm/hr 0.00 in0.0 mm
05:52 AM 14.4°F-9.8°C 9.7°F-12.4°C 81% 7.0 mph S11.3 kmh S 12.0 mph19.3 kmh 30.18 in1022.0 mb 0.00 in0.0 mm 0.00 in/hr0.0 mm/hr 0.00 in0.0 mm
05:51 AM 14.4°F-9.8°C 9.7°F-12.4°C 81% 7.0 mph S11.3 kmh S 12.0 mph19.3 kmh 30.18 in1022.0 mb 0.00 in0.0 mm 0.00 in/hr0.0 mm/hr 0.00 in0.0 mm
05:50 AM 14.4°F-9.8°C 9.7°F-12.4°C 81% 7.0 mph S11.3 kmh S 12.0 mph19.3 kmh 30.18 in1022.0 mb 0.00 in0.0 mm 0.00 in/hr0.0 mm/hr 0.00 in0.0 mm
05:49 AM 14.4°F-9.8°C 9.7°F-12.4°C 81% 8.0 mph S12.9 kmh S 12.0 mph19.3 kmh 30.18 in1022.0 mb 0.00 in0.0 mm 0.00 in/hr0.0 mm/hr 0.00 in0.0 mm
05:48 AM 14.4°F-9.8°C 9.7°F-12.4°C 81% 9.0 mph S14.5 kmh S 12.0 mph19.3 kmh 30.18 in1022.0 mb 0.00 in0.0 mm 0.00 in/hr0.0 mm/hr 0.00 in0.0 mm
05:47 AM 14.4°F-9.8°C 9.4°F-12.6°C 80% 7.0 mph S11.3 kmh S 12.0 mph19.3 kmh 30.18 in1022.0 mb 0.00 in0.0 mm 0.00 in/hr0.0 mm/hr 0.00 in0.0 mm
05:46 AM 14.4°F-9.8°C 9.7°F-12.4°C 81% 9.0 mph S14.5 kmh S 12.0 mph19.3 kmh 30.18 in1022.0 mb 0.00 in0.0 mm 0.00 in/hr0.0 mm/hr 0.00 in0.0 mm
05:45 AM 14.5°F-9.7°C 9.7°F-12.4°C 81% 8.0 mph S12.9 kmh S 12.0 mph19.3 kmh 30.18 in1022.0 mb 0.00 in0.0 mm 0.00 in/hr0.0 mm/hr 0.00 in0.0 mm
05:44 AM 14.5°F-9.7°C 9.7°F-12.4°C 81% 8.0 mph S12.9 kmh S 12.0 mph19.3 kmh 30.18 in1022.0 mb 0.00 in0.0 mm 0.00 in/hr0.0 mm/hr 0.00 in0.0 mm
05:43 AM 14.5°F-9.7°C 9.5°F-12.5°C 80% 8.0 mph S12.9 kmh S 12.0 mph19.3 kmh 30.18 in1022.0 mb 0.00 in0.0 mm 0.00 in/hr0.0 mm/hr 0.00 in0.0 mm
05:42 AM 14.5°F-9.7°C 9.5°F-12.5°C 80% 9.0 mph S14.5 kmh S 12.0 mph19.3 kmh 30.19 in1022.4 mb 0.00 in0.0 mm 0.00 in/hr0.0 mm/hr 0.00 in0.0 mm
05:41 AM 14.5°F-9.7°C 9.5°F-12.5°C 80% 8.0 mph S12.9 kmh S 12.0 mph19.3 kmh 30.19 in1022.4 mb 0.00 in0.0 mm 0.00 in/hr0.0 mm/hr 0.00 in0.0 mm
05:40 AM 14.5°F-9.7°C 9.5°F-12.5°C 80% 9.0 mph S14.5 kmh S 11.0 mph17.7 kmh 30.19 in1022.4 mb 0.00 in0.0 mm 0.00 in/hr0.0 mm/hr 0.00 in0.0 mm
05:39 AM 14.5°F-9.7°C 9.5°F-12.5°C 80% 8.0 mph S12.9 kmh S 11.0 mph17.7 kmh 30.19 in1022.4 mb 0.00 in0.0 mm 0.00 in/hr0.0 mm/hr 0.00 in0.0 mm
05:38 AM 14.6°F-9.7°C 9.6°F-12.4°C 80% 9.0 mph S14.5 kmh S 11.0 mph17.7 kmh 30.19 in1022.4 mb 0.00 in0.0 mm 0.00 in/hr0.0 mm/hr 0.00 in0.0 mm
05:37 AM 14.6°F-9.7°C 9.6°F-12.4°C 80% 8.0 mph S12.9 kmh S 11.0 mph17.7 kmh 30.19 in1022.4 mb 0.00 in0.0 mm 0.00 in/hr0.0 mm/hr 0.00 in0.0 mm
05:36 AM 14.6°F-9.7°C 9.6°F-12.4°C 80% 10.0 mph S16.1 kmh S 11.0 mph17.7 kmh 30.19 in1022.4 mb 0.00 in0.0 mm 0.00 in/hr0.0 mm/hr 0.00 in0.0 mm
05:35 AM 14.6°F-9.7°C 9.6°F-12.4°C 80% 9.0 mph S14.5 kmh S 11.0 mph17.7 kmh 30.19 in1022.4 mb 0.00 in0.0 mm 0.00 in/hr0.0 mm/hr 0.00 in0.0 mm
05:34 AM 14.6°F-9.7°C 9.6°F-12.4°C 80% 10.0 mph S16.1 kmh S 11.0 mph17.7 kmh 30.19 in1022.4 mb 0.00 in0.0 mm 0.00 in/hr0.0 mm/hr 0.00 in0.0 mm
05:33 AM 14.6°F-9.7°C 9.6°F-12.4°C 80% 11.0 mph S17.7 kmh S 11.0 mph17.7 kmh 30.19 in1022.4 mb 0.00 in0.0 mm 0.00 in/hr0.0 mm/hr 0.00 in0.0 mm
05:32 AM 14.6°F-9.7°C 9.6°F-12.4°C 80% 10.0 mph S16.1 kmh S 10.0 mph16.1 kmh 30.19 in1022.4 mb 0.00 in0.0 mm 0.00 in/hr0.0 mm/hr 0.00 in0.0 mm
05:31 AM 14.6°F-9.7°C 9.6°F-12.4°C 80% 9.0 mph S14.5 kmh S 15.0 mph24.1 kmh 30.19 in1022.4 mb 0.00 in0.0 mm 0.00 in/hr0.0 mm/hr 0.00 in0.0 mm
05:30 AM 14.6°F-9.7°C 9.6°F-12.4°C 80% 9.0 mph S14.5 kmh S 15.0 mph24.1 kmh 30.19 in1022.4 mb 0.00 in0.0 mm 0.00 in/hr0.0 mm/hr 0.00 in0.0 mm
05:29 AM 14.7°F-9.6°C 9.7°F-12.4°C 80% 10.0 mph S16.1 kmh S 15.0 mph24.1 kmh 30.19 in1022.4 mb 0.00 in0.0 mm 0.00 in/hr0.0 mm/hr 0.00 in0.0 mm
05:28 AM 14.7°F-9.6°C 9.7°F-12.4°C 80% 9.0 mph S14.5 kmh S 15.0 mph24.1 kmh 30.19 in1022.4 mb 0.00 in0.0 mm 0.00 in/hr0.0 mm/hr 0.00 in0.0 mm
05:27 AM 14.7°F-9.6°C 9.7°F-12.4°C 80% 9.0 mph S14.5 kmh S 15.0 mph24.1 kmh 30.19 in1022.4 mb 0.00 in0.0 mm 0.00 in/hr0.0 mm/hr 0.00 in0.0 mm
05:26 AM 14.7°F-9.6°C 9.7°F-12.4°C 80% 10.0 mph S16.1 kmh S 15.0 mph24.1 kmh 30.19 in1022.4 mb 0.00 in0.0 mm 0.00 in/hr0.0 mm/hr 0.00 in0.0 mm
05:25 AM 14.7°F-9.6°C 9.7°F-12.4°C 80% 11.0 mph S17.7 kmh S 15.0 mph24.1 kmh 30.18 in1022.0 mb 0.00 in0.0 mm 0.00 in/hr0.0 mm/hr 0.00 in0.0 mm
05:24 AM 14.8°F-9.6°C 9.8°F-12.3°C 80% 12.0 mph S19.3 kmh S 15.0 mph24.1 kmh 30.18 in1022.0 mb 0.00 in0.0 mm 0.00 in/hr0.0 mm/hr 0.00 in0.0 mm
05:23 AM 14.7°F-9.6°C 9.7°F-12.4°C 80% 11.0 mph S17.7 kmh S 15.0 mph24.1 kmh 30.18 in1022.0 mb 0.00 in0.0 mm 0.00 in/hr0.0 mm/hr 0.00 in0.0 mm
05:22 AM 14.7°F-9.6°C 9.7°F-12.4°C 80% 12.0 mph SSW19.3 kmh SSW 15.0 mph24.1 kmh 30.19 in1022.4 mb 0.00 in0.0 mm 0.00 in/hr0.0 mm/hr 0.00 in0.0 mm
05:21 AM 14.8°F-9.6°C 9.8°F-12.3°C 80% 10.0 mph S16.1 kmh S 14.0 mph22.5 kmh 30.19 in1022.4 mb 0.00 in0.0 mm 0.00 in/hr0.0 mm/hr 0.00 in0.0 mm
05:20 AM 14.8°F-9.6°C 9.8°F-12.3°C 80% 8.0 mph S12.9 kmh S 14.0 mph22.5 kmh 30.19 in1022.4 mb 0.00 in0.0 mm 0.00 in/hr0.0 mm/hr 0.00 in0.0 mm
05:19 AM 14.8°F-9.6°C 9.5°F-12.5°C 79% 10.0 mph S16.1 kmh S 14.0 mph22.5 kmh 30.19 in1022.4 mb 0.00 in0.0 mm 0.00 in/hr0.0 mm/hr 0.00 in0.0 mm
05:18 AM 14.8°F-9.6°C 9.5°F-12.5°C 79% 10.0 mph S16.1 kmh S 14.0 mph22.5 kmh 30.19 in1022.4 mb 0.00 in0.0 mm 0.00 in/hr0.0 mm/hr 0.00 in0.0 mm
05:17 AM 14.8°F-9.6°C 9.5°F-12.5°C 79% 10.0 mph S16.1 kmh S 14.0 mph22.5 kmh 30.18 in1022.0 mb 0.00 in0.0 mm 0.00 in/hr0.0 mm/hr 0.00 in0.0 mm
05:16 AM 14.8°F-9.6°C 9.5°F-12.5°C 79% 9.0 mph SSW14.5 kmh SSW 14.0 mph22.5 kmh 30.18 in1022.0 mb 0.00 in0.0 mm 0.00 in/hr0.0 mm/hr 0.00 in0.0 mm
05:15 AM 14.9°F-9.5°C 9.6°F-12.4°C 79% 12.0 mph S19.3 kmh S 14.0 mph22.5 kmh 30.18 in1022.0 mb 0.00 in0.0 mm 0.00 in/hr0.0 mm/hr 0.00 in0.0 mm
05:14 AM 14.9°F-9.5°C 9.6°F-12.4°C 79% 8.0 mph S12.9 kmh S 14.0 mph22.5 kmh 30.18 in1022.0 mb 0.00 in0.0 mm 0.00 in/hr0.0 mm/hr 0.00 in0.0 mm
05:13 AM 14.9°F-9.5°C 9.6°F-12.4°C 79% 11.0 mph S17.7 kmh S 14.0 mph22.5 kmh 30.18 in1022.0 mb 0.00 in0.0 mm 0.00 in/hr0.0 mm/hr 0.00 in0.0 mm
05:12 AM 14.9°F-9.5°C 9.6°F-12.4°C 79% 11.0 mph S17.7 kmh S 14.0 mph22.5 kmh 30.19 in1022.4 mb 0.00 in0.0 mm 0.00 in/hr0.0 mm/hr 0.00 in0.0 mm
05:11 AM 14.9°F-9.5°C 9.6°F-12.4°C 79% 10.0 mph S16.1 kmh S 14.0 mph22.5 kmh 30.18 in1022.0 mb 0.00 in0.0 mm 0.00 in/hr0.0 mm/hr 0.00 in0.0 mm
05:10 AM 14.9°F-9.5°C 9.6°F-12.4°C 79% 8.0 mph S12.9 kmh S 14.0 mph22.5 kmh 30.19 in1022.4 mb 0.00 in0.0 mm 0.00 in/hr0.0 mm/hr 0.00 in0.0 mm
05:09 AM 14.9°F-9.5°C 9.6°F-12.4°C 79% 12.0 mph S19.3 kmh S 14.0 mph22.5 kmh 30.19 in1022.4 mb 0.00 in0.0 mm 0.00 in/hr0.0 mm/hr 0.00 in0.0 mm
05:08 AM 14.9°F-9.5°C 9.6°F-12.4°C 79% 10.0 mph S16.1 kmh S 14.0 mph22.5 kmh 30.19 in1022.4 mb 0.00 in0.0 mm 0.00 in/hr0.0 mm/hr 0.00 in0.0 mm
05:07 AM 15.0°F-9.4°C 9.7°F-12.4°C 79% 11.0 mph S17.7 kmh S 14.0 mph22.5 kmh 30.19 in1022.4 mb 0.00 in0.0 mm 0.00 in/hr0.0 mm/hr 0.00 in0.0 mm
05:06 AM 15.0°F-9.4°C 9.7°F-12.4°C 79% 10.0 mph S16.1 kmh S 13.0 mph20.9 kmh 30.19 in1022.4 mb 0.00 in0.0 mm 0.00 in/hr0.0 mm/hr 0.00 in0.0 mm
05:05 AM 15.0°F-9.4°C 9.7°F-12.4°C 79% 10.0 mph S16.1 kmh S 13.0 mph20.9 kmh 30.19 in1022.4 mb 0.00 in0.0 mm 0.00 in/hr0.0 mm/hr 0.00 in0.0 mm
05:04 AM 15.0°F-9.4°C 9.7°F-12.4°C 79% 10.0 mph S16.1 kmh S 13.0 mph20.9 kmh 30.19 in1022.4 mb 0.00 in0.0 mm 0.00 in/hr0.0 mm/hr 0.00 in0.0 mm
05:03 AM 15.0°F-9.4°C 9.7°F-12.4°C 79% 13.0 mph S20.9 kmh S 13.0 mph20.9 kmh 30.19 in1022.4 mb 0.00 in0.0 mm 0.00 in/hr0.0 mm/hr 0.00 in0.0 mm
05:02 AM 15.0°F-9.4°C 9.7°F-12.4°C 79% 9.0 mph S14.5 kmh S 13.0 mph20.9 kmh 30.19 in1022.4 mb 0.00 in0.0 mm 0.00 in/hr0.0 mm/hr 0.00 in0.0 mm
05:01 AM 15.0°F-9.4°C 9.7°F-12.4°C 79% 10.0 mph S16.1 kmh S 16.0 mph25.7 kmh 30.19 in1022.4 mb 0.00 in0.0 mm 0.00 in/hr0.0 mm/hr 0.00 in0.0 mm
05:00 AM 15.0°F-9.4°C 9.7°F-12.4°C 79% 10.0 mph S16.1 kmh S 16.0 mph25.7 kmh 30.19 in1022.4 mb 0.00 in0.0 mm 0.00 in/hr0.0 mm/hr 0.00 in0.0 mm
04:59 AM 15.0°F-9.4°C 9.7°F-12.4°C 79% 12.0 mph S19.3 kmh S 16.0 mph25.7 kmh 30.19 in1022.4 mb 0.00 in0.0 mm 0.00 in/hr0.0 mm/hr 0.00 in0.0 mm
04:58 AM 15.0°F-9.4°C 9.7°F-12.4°C 79% 10.0 mph S16.1 kmh S 16.0 mph25.7 kmh 30.19 in1022.4 mb 0.00 in0.0 mm 0.00 in/hr0.0 mm/hr 0.00 in0.0 mm
04:57 AM 15.1°F-9.4°C 9.8°F-12.3°C 79% 8.0 mph S12.9 kmh S 16.0 mph25.7 kmh 30.19 in1022.4 mb 0.00 in0.0 mm 0.00 in/hr0.0 mm/hr 0.00 in0.0 mm
04:56 AM 15.1°F-9.4°C 9.8°F-12.3°C 79% 12.0 mph S19.3 kmh S 16.0 mph25.7 kmh 30.19 in1022.4 mb 0.00 in0.0 mm 0.00 in/hr0.0 mm/hr 0.00 in0.0 mm
04:55 AM 15.0°F-9.4°C 9.7°F-12.4°C 79% 13.0 mph S20.9 kmh S 16.0 mph25.7 kmh 30.19 in1022.4 mb 0.00 in0.0 mm 0.00 in/hr0.0 mm/hr 0.00 in0.0 mm
04:54 AM 15.1°F-9.4°C 9.8°F-12.3°C 79% 11.0 mph S17.7 kmh S 16.0 mph25.7 kmh 30.19 in1022.4 mb 0.00 in0.0 mm 0.00 in/hr0.0 mm/hr 0.00 in0.0 mm
04:53 AM 15.1°F-9.4°C 9.8°F-12.3°C 79% 12.0 mph S19.3 kmh S 16.0 mph25.7 kmh 30.19 in1022.4 mb 0.00 in0.0 mm 0.00 in/hr0.0 mm/hr 0.00 in0.0 mm
04:52 AM 15.1°F-9.4°C 9.8°F-12.3°C 79% 12.0 mph S19.3 kmh S 16.0 mph25.7 kmh 30.19 in1022.4 mb 0.00 in0.0 mm 0.00 in/hr0.0 mm/hr 0.00 in0.0 mm
04:51 AM 15.1°F-9.4°C 9.8°F-12.3°C 79% 10.0 mph S16.1 kmh S 16.0 mph25.7 kmh 30.19 in1022.4 mb 0.00 in0.0 mm 0.00 in/hr0.0 mm/hr 0.00 in0.0 mm
04:50 AM 15.1°F-9.4°C 9.8°F-12.3°C 79% 13.0 mph S20.9 kmh S 16.0 mph25.7 kmh 30.19 in1022.4 mb 0.00 in0.0 mm 0.00 in/hr0.0 mm/hr 0.00 in0.0 mm
04:49 AM 15.1°F-9.4°C 9.8°F-12.3°C 79% 14.0 mph S22.5 kmh S 16.0 mph25.7 kmh 30.19 in1022.4 mb 0.00 in0.0 mm 0.00 in/hr0.0 mm/hr 0.00 in0.0 mm
04:48 AM 15.1°F-9.4°C 9.8°F-12.3°C 79% 9.0 mph S14.5 kmh S 16.0 mph25.7 kmh 30.19 in1022.4 mb 0.00 in0.0 mm 0.00 in/hr0.0 mm/hr 0.00 in0.0 mm
04:47 AM 15.1°F-9.4°C 9.8°F-12.3°C 79% 11.0 mph S17.7 kmh S 16.0 mph25.7 kmh 30.19 in1022.4 mb 0.00 in0.0 mm 0.00 in/hr0.0 mm/hr 0.00 in0.0 mm
04:46 AM 15.1°F-9.4°C 9.8°F-12.3°C 79% 12.0 mph S19.3 kmh S 16.0 mph25.7 kmh 30.19 in1022.4 mb 0.00 in0.0 mm 0.00 in/hr0.0 mm/hr 0.00 in0.0 mm
04:45 AM 15.1°F-9.4°C 9.8°F-12.3°C 79% 11.0 mph S17.7 kmh S 16.0 mph25.7 kmh 30.19 in1022.4 mb 0.00 in0.0 mm 0.00 in/hr0.0 mm/hr 0.00 in0.0 mm
04:44 AM 15.1°F-9.4°C 9.8°F-12.3°C 79% 11.0 mph S17.7 kmh S 16.0 mph25.7 kmh 30.19 in1022.4 mb 0.00 in0.0 mm 0.00 in/hr0.0 mm/hr 0.00 in0.0 mm
04:43 AM 15.1°F-9.4°C 9.8°F-12.3°C 79% 11.0 mph S17.7 kmh S 16.0 mph25.7 kmh 30.19 in1022.4 mb 0.00 in0.0 mm 0.00 in/hr0.0 mm/hr 0.00 in0.0 mm
04:42 AM 15.0°F-9.4°C 9.7°F-12.4°C 79% 12.0 mph S19.3 kmh S 16.0 mph25.7 kmh 30.19 in1022.4 mb 0.00 in0.0 mm 0.00 in/hr0.0 mm/hr 0.00 in0.0 mm
04:41 AM 15.0°F-9.4°C 9.7°F-12.4°C 79% 9.0 mph S14.5 kmh S 16.0 mph25.7 kmh 30.19 in1022.4 mb 0.00 in0.0 mm 0.00 in/hr0.0 mm/hr 0.00 in0.0 mm
04:40 AM 15.0°F-9.4°C 9.7°F-12.4°C 79% 9.0 mph S14.5 kmh S 16.0 mph25.7 kmh 30.19 in1022.4 mb 0.00 in0.0 mm 0.00 in/hr0.0 mm/hr 0.00 in0.0 mm
04:39 AM 15.0°F-9.4°C 9.7°F-12.4°C 79% 16.0 mph S25.7 kmh S 16.0 mph25.7 kmh 30.19 in1022.4 mb 0.00 in0.0 mm 0.00 in/hr0.0 mm/hr 0.00 in0.0 mm
04:38 AM 15.0°F-9.4°C 9.7°F-12.4°C 79% 10.0 mph S16.1 kmh S 15.0 mph24.1 kmh 30.19 in1022.4 mb 0.00 in0.0 mm 0.00 in/hr0.0 mm/hr 0.00 in0.0 mm
04:37 AM 15.0°F-9.4°C 9.7°F-12.4°C 79% 14.0 mph S22.5 kmh S 15.0 mph24.1 kmh 30.19 in1022.4 mb 0.00 in0.0 mm 0.00 in/hr0.0 mm/hr 0.00 in0.0 mm
04:36 AM 15.0°F-9.4°C 9.7°F-12.4°C 79% 11.0 mph S17.7 kmh S 15.0 mph24.1 kmh 30.19 in1022.4 mb 0.00 in0.0 mm 0.00 in/hr0.0 mm/hr 0.00 in0.0 mm
04:35 AM 15.0°F-9.4°C 9.7°F-12.4°C 79% 9.0 mph S14.5 kmh S 15.0 mph24.1 kmh 30.19 in1022.4 mb 0.00 in0.0 mm 0.00 in/hr0.0 mm/hr 0.00 in0.0 mm
04:34 AM 15.0°F-9.4°C 9.7°F-12.4°C 79% 11.0 mph S17.7 kmh S 15.0 mph24.1 kmh 30.19 in1022.4 mb 0.00 in0.0 mm 0.00 in/hr0.0 mm/hr 0.00 in0.0 mm
04:33 AM 15.0°F-9.4°C 9.7°F-12.4°C 79% 12.0 mph S19.3 kmh S 15.0 mph24.1 kmh 30.19 in1022.4 mb 0.00 in0.0 mm 0.00 in/hr0.0 mm/hr 0.00 in0.0 mm
04:32 AM 15.0°F-9.4°C 9.7°F-12.4°C 79% 9.0 mph S14.5 kmh S 15.0 mph24.1 kmh 30.19 in1022.4 mb 0.00 in0.0 mm 0.00 in/hr0.0 mm/hr 0.00 in0.0 mm
04:31 AM 14.9°F-9.5°C 9.6°F-12.4°C 79% 13.0 mph S20.9 kmh S 17.0 mph27.4 kmh 30.19 in1022.4 mb 0.00 in0.0 mm 0.00 in/hr0.0 mm/hr 0.00 in0.0 mm
04:30 AM 14.9°F-9.5°C 9.6°F-12.4°C 79% 15.0 mph S24.1 kmh S 17.0 mph27.4 kmh 30.19 in1022.4 mb 0.00 in0.0 mm 0.00 in/hr0.0 mm/hr 0.00 in0.0 mm
04:29 AM 14.9°F-9.5°C 9.6°F-12.4°C 79% 10.0 mph S16.1 kmh S 17.0 mph27.4 kmh 30.19 in1022.4 mb 0.00 in0.0 mm 0.00 in/hr0.0 mm/hr 0.00 in0.0 mm
04:28 AM 14.9°F-9.5°C 9.6°F-12.4°C 79% 11.0 mph S17.7 kmh S 17.0 mph27.4 kmh 30.19 in1022.4 mb 0.00 in0.0 mm 0.00 in/hr0.0 mm/hr 0.00 in0.0 mm
04:27 AM 14.9°F-9.5°C 9.6°F-12.4°C 79% 9.0 mph S14.5 kmh S 17.0 mph27.4 kmh 30.19 in1022.4 mb 0.00 in0.0 mm 0.00 in/hr0.0 mm/hr 0.00 in0.0 mm
04:26 AM 14.9°F-9.5°C 9.6°F-12.4°C 79% 9.0 mph S14.5 kmh S 17.0 mph27.4 kmh 30.19 in1022.4 mb 0.00 in0.0 mm 0.00 in/hr0.0 mm/hr 0.00 in0.0 mm
04:25 AM 14.9°F-9.5°C 9.6°F-12.4°C 79% 12.0 mph S19.3 kmh S 17.0 mph27.4 kmh 30.19 in1022.4 mb 0.00 in0.0 mm 0.00 in/hr0.0 mm/hr 0.00 in0.0 mm
04:24 AM 14.9°F-9.5°C 9.6°F-12.4°C 79% 12.0 mph S19.3 kmh S 17.0 mph27.4 kmh 30.19 in1022.4 mb 0.00 in0.0 mm 0.00 in/hr0.0 mm/hr 0.00 in0.0 mm
04:23 AM 14.9°F-9.5°C 9.6°F-12.4°C 79% 11.0 mph S17.7 kmh S 17.0 mph27.4 kmh 30.19 in1022.4 mb 0.00 in0.0 mm 0.00 in/hr0.0 mm/hr 0.00 in0.0 mm
04:22 AM 14.9°F-9.5°C 9.6°F-12.4°C 79% 11.0 mph S17.7 kmh S 17.0 mph27.4 kmh 30.19 in1022.4 mb 0.00 in0.0 mm 0.00 in/hr0.0 mm/hr 0.00 in0.0 mm
04:21 AM 14.8°F-9.6°C 9.5°F-12.5°C 79% 10.0 mph S16.1 kmh S 17.0 mph27.4 kmh 30.19 in1022.4 mb 0.00 in0.0 mm 0.00 in/hr0.0 mm/hr 0.00 in0.0 mm
04:20 AM 14.9°F-9.5°C 9.6°F-12.4°C 79% 11.0 mph S17.7 kmh S 17.0 mph27.4 kmh 30.19 in1022.4 mb 0.00 in0.0 mm 0.00 in/hr0.0 mm/hr 0.00 in0.0 mm
04:19 AM 14.8°F-9.6°C 9.5°F-12.5°C 79% 11.0 mph S17.7 kmh S 17.0 mph27.4 kmh 30.19 in1022.4 mb 0.00 in0.0 mm 0.00 in/hr0.0 mm/hr 0.00 in0.0 mm
04:18 AM 14.8°F-9.6°C 9.5°F-12.5°C 79% 12.0 mph S19.3 kmh S 17.0 mph27.4 kmh 30.19 in1022.4 mb 0.00 in0.0 mm 0.00 in/hr0.0 mm/hr 0.00 in0.0 mm
04:17 AM 14.8°F-9.6°C 9.5°F-12.5°C 79% 11.0 mph S17.7 kmh S 17.0 mph27.4 kmh 30.19 in1022.4 mb 0.00 in0.0 mm 0.00 in/hr0.0 mm/hr 0.00 in0.0 mm
04:16 AM 14.8°F-9.6°C 9.5°F-12.5°C 79% 14.0 mph S22.5 kmh S 17.0 mph27.4 kmh 30.20 in1022.7 mb 0.00 in0.0 mm 0.00 in/hr0.0 mm/hr 0.00 in0.0 mm
04:15 AM 14.8°F-9.6°C 9.5°F-12.5°C 79% 11.0 mph S17.7 kmh S 17.0 mph27.4 kmh 30.20 in1022.7 mb 0.00 in0.0 mm 0.00 in/hr0.0 mm/hr 0.00 in0.0 mm
04:14 AM 14.8°F-9.6°C 9.2°F-12.7°C 78% 11.0 mph S17.7 kmh S 17.0 mph27.4 kmh 30.20 in1022.7 mb 0.00 in0.0 mm 0.00 in/hr0.0 mm/hr 0.00 in0.0 mm
04:13 AM 14.7°F-9.6°C 9.4°F-12.6°C 79% 10.0 mph S16.1 kmh S 17.0 mph27.4 kmh 30.20 in1022.7 mb 0.00 in0.0 mm 0.00 in/hr0.0 mm/hr 0.00 in0.0 mm
04:12 AM 14.7°F-9.6°C 9.1°F-12.7°C 78% 11.0 mph S17.7 kmh S 17.0 mph27.4 kmh 30.20 in1022.7 mb 0.00 in0.0 mm 0.00 in/hr0.0 mm/hr 0.00 in0.0 mm
04:11 AM 14.7°F-9.6°C 9.1°F-12.7°C 78% 13.0 mph S20.9 kmh S 17.0 mph27.4 kmh 30.20 in1022.7 mb 0.00 in0.0 mm 0.00 in/hr0.0 mm/hr 0.00 in0.0 mm
04:10 AM 14.7°F-9.6°C 9.1°F-12.7°C 78% 12.0 mph SSW19.3 kmh SSW 17.0 mph27.4 kmh 30.20 in1022.7 mb 0.00 in0.0 mm 0.00 in/hr0.0 mm/hr 0.00 in0.0 mm
04:09 AM 14.6°F-9.7°C 9.0°F-12.8°C 78% 13.0 mph S20.9 kmh S 17.0 mph27.4 kmh 30.20 in1022.7 mb 0.00 in0.0 mm 0.00 in/hr0.0 mm/hr 0.00 in0.0 mm
04:08 AM 14.6°F-9.7°C 9.0°F-12.8°C 78% 11.0 mph S17.7 kmh S 15.0 mph24.1 kmh 30.20 in1022.7 mb 0.00 in0.0 mm 0.00 in/hr0.0 mm/hr 0.00 in0.0 mm
04:07 AM 14.6°F-9.7°C 9.0°F-12.8°C 78% 14.0 mph S22.5 kmh S 15.0 mph24.1 kmh 30.20 in1022.7 mb 0.00 in0.0 mm 0.00 in/hr0.0 mm/hr 0.00 in0.0 mm
04:06 AM 14.6°F-9.7°C 9.0°F-12.8°C 78% 13.0 mph S20.9 kmh S 15.0 mph24.1 kmh 30.20 in1022.7 mb 0.00 in0.0 mm 0.00 in/hr0.0 mm/hr 0.00 in0.0 mm
04:05 AM 14.6°F-9.7°C 9.0°F-12.8°C 78% 12.0 mph S19.3 kmh S 15.0 mph24.1 kmh 30.20 in1022.7 mb 0.00 in0.0 mm 0.00 in/hr0.0 mm/hr 0.00 in0.0 mm
04:04 AM 14.5°F-9.7°C 8.9°F-12.8°C 78% 10.0 mph S16.1 kmh S 14.0 mph22.5 kmh 30.20 in1022.7 mb 0.00 in0.0 mm 0.00 in/hr0.0 mm/hr 0.00 in0.0 mm
04:03 AM 14.5°F-9.7°C 8.9°F-12.8°C 78% 11.0 mph S17.7 kmh S 14.0 mph22.5 kmh 30.20 in1022.7 mb 0.00 in0.0 mm 0.00 in/hr0.0 mm/hr 0.00 in0.0 mm
04:02 AM 14.5°F-9.7°C 8.9°F-12.8°C 78% 13.0 mph S20.9 kmh S 14.0 mph22.5 kmh 30.20 in1022.7 mb 0.00 in0.0 mm 0.00 in/hr0.0 mm/hr 0.00 in0.0 mm
04:01 AM 14.5°F-9.7°C 8.9°F-12.8°C 78% 14.0 mph S22.5 kmh S 17.0 mph27.4 kmh 30.20 in1022.7 mb 0.00 in0.0 mm 0.00 in/hr0.0 mm/hr 0.00 in0.0 mm
04:00 AM 14.5°F-9.7°C 8.9°F-12.8°C 78% 14.0 mph S22.5 kmh S 17.0 mph27.4 kmh 30.20 in1022.7 mb 0.00 in0.0 mm 0.00 in/hr0.0 mm/hr 0.00 in0.0 mm
03:59 AM 14.5°F-9.7°C 8.9°F-12.8°C 78% 10.0 mph S16.1 kmh S 17.0 mph27.4 kmh 30.20 in1022.7 mb 0.00 in0.0 mm 0.00 in/hr0.0 mm/hr 0.00 in0.0 mm
03:58 AM 14.5°F-9.7°C 8.9°F-12.8°C 78% 12.0 mph SSW19.3 kmh SSW 17.0 mph27.4 kmh 30.21 in1023.0 mb 0.00 in0.0 mm 0.00 in/hr0.0 mm/hr 0.00 in0.0 mm
03:57 AM 14.5°F-9.7°C 8.9°F-12.8°C 78% 11.0 mph S17.7 kmh S 17.0 mph27.4 kmh 30.21 in1023.0 mb 0.00 in0.0 mm 0.00 in/hr0.0 mm/hr 0.00 in0.0 mm
03:56 AM 14.5°F-9.7°C 8.9°F-12.8°C 78% 13.0 mph S20.9 kmh S 17.0 mph27.4 kmh 30.21 in1023.0 mb 0.00 in0.0 mm 0.00 in/hr0.0 mm/hr 0.00 in0.0 mm
03:55 AM 14.5°F-9.7°C 8.9°F-12.8°C 78% 12.0 mph S19.3 kmh S 17.0 mph27.4 kmh 30.21 in1023.0 mb 0.00 in0.0 mm 0.00 in/hr0.0 mm/hr 0.00 in0.0 mm
03:54 AM 14.5°F-9.7°C 8.9°F-12.8°C 78% 9.0 mph S14.5 kmh S 17.0 mph27.4 kmh 30.21 in1023.0 mb 0.00 in0.0 mm 0.00 in/hr0.0 mm/hr 0.00 in0.0 mm
03:53 AM 14.5°F-9.7°C 8.9°F-12.8°C 78% 11.0 mph S17.7 kmh S 17.0 mph27.4 kmh 30.21 in1023.0 mb 0.00 in0.0 mm 0.00 in/hr0.0 mm/hr 0.00 in0.0 mm
03:52 AM 14.5°F-9.7°C 8.9°F-12.8°C 78% 9.0 mph S14.5 kmh S 17.0 mph27.4 kmh 30.21 in1023.0 mb 0.00 in0.0 mm 0.00 in/hr0.0 mm/hr 0.00 in0.0 mm
03:51 AM 14.5°F-9.7°C 8.9°F-12.8°C 78% 15.0 mph S24.1 kmh S 17.0 mph27.4 kmh 30.21 in1023.0 mb 0.00 in0.0 mm 0.00 in/hr0.0 mm/hr 0.00 in0.0 mm
03:50 AM 14.5°F-9.7°C 8.9°F-12.8°C 78% 9.0 mph S14.5 kmh S 17.0 mph27.4 kmh 30.21 in1023.0 mb 0.00 in0.0 mm 0.00 in/hr0.0 mm/hr 0.00 in0.0 mm
03:49 AM 14.5°F-9.7°C 8.9°F-12.8°C 78% 11.0 mph S17.7 kmh S 17.0 mph27.4 kmh 30.21 in1023.0 mb 0.00 in0.0 mm 0.00 in/hr0.0 mm/hr 0.00 in0.0 mm
03:48 AM 14.5°F-9.7°C 8.9°F-12.8°C 78% 11.0 mph SSE17.7 kmh SSE 17.0 mph27.4 kmh 30.21 in1023.0 mb 0.00 in0.0 mm 0.00 in/hr0.0 mm/hr 0.00 in0.0 mm
03:47 AM 14.5°F-9.7°C 8.6°F-13.0°C 77% 11.0 mph S17.7 kmh S 17.0 mph27.4 kmh 30.21 in1023.0 mb 0.00 in0.0 mm 0.00 in/hr0.0 mm/hr 0.00 in0.0 mm
03:46 AM 14.5°F-9.7°C 8.6°F-13.0°C 77% 14.0 mph S22.5 kmh S 17.0 mph27.4 kmh 30.21 in1023.0 mb 0.00 in0.0 mm 0.00 in/hr0.0 mm/hr 0.00 in0.0 mm
03:45 AM 14.5°F-9.7°C 8.6°F-13.0°C 77% 12.0 mph S19.3 kmh S 17.0 mph27.4 kmh 30.21 in1023.0 mb 0.00 in0.0 mm 0.00 in/hr0.0 mm/hr 0.00 in0.0 mm
03:44 AM 14.6°F-9.7°C 8.7°F-12.9°C 77% 11.0 mph S17.7 kmh S 16.0 mph25.7 kmh 30.21 in1023.0 mb 0.00 in0.0 mm 0.00 in/hr0.0 mm/hr 0.00 in0.0 mm
03:43 AM 14.6°F-9.7°C 8.7°F-12.9°C 77% 12.0 mph S19.3 kmh S 16.0 mph25.7 kmh 30.21 in1023.0 mb 0.00 in0.0 mm 0.00 in/hr0.0 mm/hr 0.00 in0.0 mm
03:42 AM 14.6°F-9.7°C 8.7°F-12.9°C 77% 10.0 mph S16.1 kmh S 16.0 mph25.7 kmh 30.21 in1023.0 mb 0.00 in0.0 mm 0.00 in/hr0.0 mm/hr 0.00 in0.0 mm
03:41 AM 14.6°F-9.7°C 8.7°F-12.9°C 77% 14.0 mph S22.5 kmh S 16.0 mph25.7 kmh 30.22 in1023.4 mb 0.00 in0.0 mm 0.00 in/hr0.0 mm/hr 0.00 in0.0 mm
03:40 AM 14.6°F-9.7°C 8.7°F-12.9°C 77% 8.0 mph S12.9 kmh S 16.0 mph25.7 kmh 30.21 in1023.0 mb 0.00 in0.0 mm 0.00 in/hr0.0 mm/hr 0.00 in0.0 mm
03:39 AM 14.6°F-9.7°C 8.7°F-12.9°C 77% 13.0 mph S20.9 kmh S 16.0 mph25.7 kmh 30.22 in1023.4 mb 0.00 in0.0 mm 0.00 in/hr0.0 mm/hr 0.00 in0.0 mm
03:38 AM 14.6°F-9.7°C 8.7°F-12.9°C 77% 11.0 mph S17.7 kmh S 16.0 mph25.7 kmh 30.22 in1023.4 mb 0.00 in0.0 mm 0.00 in/hr0.0 mm/hr 0.00 in0.0 mm
03:37 AM 14.6°F-9.7°C 8.7°F-12.9°C 77% 14.0 mph S22.5 kmh S 16.0 mph25.7 kmh 30.22 in1023.4 mb 0.00 in0.0 mm 0.00 in/hr0.0 mm/hr 0.00 in0.0 mm
03:36 AM 14.6°F-9.7°C 8.7°F-12.9°C 77% 11.0 mph S17.7 kmh S 16.0 mph25.7 kmh 30.22 in1023.4 mb 0.00 in0.0 mm 0.00 in/hr0.0 mm/hr 0.00 in0.0 mm
03:35 AM 14.6°F-9.7°C 8.7°F-12.9°C 77% 10.0 mph S16.1 kmh S 16.0 mph25.7 kmh 30.22 in1023.4 mb 0.00 in0.0 mm 0.00 in/hr0.0 mm/hr 0.00 in0.0 mm
03:34 AM 14.6°F-9.7°C 8.7°F-12.9°C 77% 13.0 mph S20.9 kmh S 16.0 mph25.7 kmh 30.22 in1023.4 mb 0.00 in0.0 mm 0.00 in/hr0.0 mm/hr 0.00 in0.0 mm
03:33 AM 14.6°F-9.7°C 8.7°F-12.9°C 77% 12.0 mph SSW19.3 kmh SSW 16.0 mph25.7 kmh 30.22 in1023.4 mb 0.00 in0.0 mm 0.00 in/hr0.0 mm/hr 0.00 in0.0 mm
03:32 AM 14.6°F-9.7°C 8.7°F-12.9°C 77% 10.0 mph S16.1 kmh S 12.0 mph19.3 kmh 30.22 in1023.4 mb 0.00 in0.0 mm 0.00 in/hr0.0 mm/hr 0.00 in0.0 mm
03:31 AM 14.6°F-9.7°C 8.7°F-12.9°C 77% 11.0 mph S17.7 kmh S 17.0 mph27.4 kmh 30.22 in1023.4 mb 0.00 in0.0 mm 0.00 in/hr0.0 mm/hr 0.00 in0.0 mm
03:30 AM 14.6°F-9.7°C 8.7°F-12.9°C 77% 12.0 mph S19.3 kmh S 17.0 mph27.4 kmh 30.22 in1023.4 mb 0.00 in0.0 mm 0.00 in/hr0.0 mm/hr 0.00 in0.0 mm
03:29 AM 14.6°F-9.7°C 8.7°F-12.9°C 77% 11.0 mph S17.7 kmh S 17.0 mph27.4 kmh 30.22 in1023.4 mb 0.00 in0.0 mm 0.00 in/hr0.0 mm/hr 0.00 in0.0 mm
03:28 AM 14.6°F-9.7°C 8.7°F-12.9°C 77% 14.0 mph S22.5 kmh S 17.0 mph27.4 kmh 30.22 in1023.4 mb 0.00 in0.0 mm 0.00 in/hr0.0 mm/hr 0.00 in0.0 mm
03:27 AM 14.6°F-9.7°C 8.7°F-12.9°C 77% 9.0 mph S14.5 kmh S 17.0 mph27.4 kmh 30.22 in1023.4 mb 0.00 in0.0 mm 0.00 in/hr0.0 mm/hr 0.00 in0.0 mm
03:26 AM 14.6°F-9.7°C 8.7°F-12.9°C 77% 10.0 mph S16.1 kmh S 17.0 mph27.4 kmh 30.22 in1023.4 mb 0.00 in0.0 mm 0.00 in/hr0.0 mm/hr 0.00 in0.0 mm
03:25 AM 14.6°F-9.7°C 8.7°F-12.9°C 77% 10.0 mph S16.1 kmh S 17.0 mph27.4 kmh 30.23 in1023.7 mb 0.00 in0.0 mm 0.00 in/hr0.0 mm/hr 0.00 in0.0 mm
03:24 AM 14.6°F-9.7°C 8.7°F-12.9°C 77% 11.0 mph S17.7 kmh S 17.0 mph27.4 kmh 30.23 in1023.7 mb 0.00 in0.0 mm 0.00 in/hr0.0 mm/hr 0.00 in0.0 mm
03:23 AM 14.6°F-9.7°C 8.7°F-12.9°C 77% 11.0 mph S17.7 kmh S 17.0 mph27.4 kmh 30.23 in1023.7 mb 0.00 in0.0 mm 0.00 in/hr0.0 mm/hr 0.00 in0.0 mm
03:22 AM 14.6°F-9.7°C 8.7°F-12.9°C 77% 12.0 mph S19.3 kmh S 17.0 mph27.4 kmh 30.23 in1023.7 mb 0.00 in0.0 mm 0.00 in/hr0.0 mm/hr 0.00 in0.0 mm
03:21 AM 14.6°F-9.7°C 8.7°F-12.9°C 77% 9.0 mph S14.5 kmh S 17.0 mph27.4 kmh 30.23 in1023.7 mb 0.00 in0.0 mm 0.00 in/hr0.0 mm/hr 0.00 in0.0 mm
03:20 AM 14.6°F-9.7°C 8.7°F-12.9°C 77% 11.0 mph S17.7 kmh S 17.0 mph27.4 kmh 30.23 in1023.7 mb 0.00 in0.0 mm 0.00 in/hr0.0 mm/hr 0.00 in0.0 mm
03:19 AM 14.6°F-9.7°C 8.7°F-12.9°C 77% 11.0 mph SSW17.7 kmh SSW 17.0 mph27.4 kmh 30.23 in1023.7 mb 0.00 in0.0 mm 0.00 in/hr0.0 mm/hr 0.00 in0.0 mm
03:18 AM 14.6°F-9.7°C 8.7°F-12.9°C 77% 11.0 mph S17.7 kmh S 17.0 mph27.4 kmh 30.23 in1023.7 mb 0.00 in0.0 mm 0.00 in/hr0.0 mm/hr 0.00 in0.0 mm
03:17 AM 14.6°F-9.7°C 8.7°F-12.9°C 77% 13.0 mph S20.9 kmh S 17.0 mph27.4 kmh 30.23 in1023.7 mb 0.00 in0.0 mm 0.00 in/hr0.0 mm/hr 0.00 in0.0 mm
03:16 AM 14.5°F-9.7°C 8.6°F-13.0°C 77% 11.0 mph SSE17.7 kmh SSE 17.0 mph27.4 kmh 30.23 in1023.7 mb 0.00 in0.0 mm 0.00 in/hr0.0 mm/hr 0.00 in0.0 mm
03:15 AM 14.5°F-9.7°C 8.6°F-13.0°C 77% 12.0 mph S19.3 kmh S 17.0 mph27.4 kmh 30.23 in1023.7 mb 0.00 in0.0 mm 0.00 in/hr0.0 mm/hr 0.00 in0.0 mm
03:14 AM 14.5°F-9.7°C 8.6°F-13.0°C 77% 9.0 mph S14.5 kmh S 17.0 mph27.4 kmh 30.23 in1023.7 mb 0.00 in0.0 mm 0.00 in/hr0.0 mm/hr 0.00 in0.0 mm
03:13 AM 14.5°F-9.7°C 8.6°F-13.0°C 77% 10.0 mph SSE16.1 kmh SSE 17.0 mph27.4 kmh 30.23 in1023.7 mb 0.00 in0.0 mm 0.00 in/hr0.0 mm/hr 0.00 in0.0 mm
03:12 AM 14.5°F-9.7°C 8.6°F-13.0°C 77% 12.0 mph SSW19.3 kmh SSW 17.0 mph27.4 kmh 30.23 in1023.7 mb 0.00 in0.0 mm 0.00 in/hr0.0 mm/hr 0.00 in0.0 mm
03:11 AM 14.5°F-9.7°C 8.6°F-13.0°C 77% 9.0 mph S14.5 kmh S 17.0 mph27.4 kmh 30.24 in1024.0 mb 0.00 in0.0 mm 0.00 in/hr0.0 mm/hr 0.00 in0.0 mm
03:10 AM 14.4°F-9.8°C 8.5°F-13.1°C 77% 11.0 mph S17.7 kmh S 17.0 mph27.4 kmh 30.24 in1024.0 mb 0.00 in0.0 mm 0.00 in/hr0.0 mm/hr 0.00 in0.0 mm
03:09 AM 14.4°F-9.8°C 8.5°F-13.1°C 77% 10.0 mph S16.1 kmh S 17.0 mph27.4 kmh 30.23 in1023.7 mb 0.00 in0.0 mm 0.00 in/hr0.0 mm/hr 0.00 in0.0 mm
03:08 AM 14.3°F-9.8°C 8.4°F-13.1°C 77% 11.0 mph SSW17.7 kmh SSW 17.0 mph27.4 kmh 30.23 in1023.7 mb 0.00 in0.0 mm 0.00 in/hr0.0 mm/hr 0.00 in0.0 mm
03:07 AM 14.3°F-9.8°C 8.4°F-13.1°C 77% 13.0 mph S20.9 kmh S 17.0 mph27.4 kmh 30.24 in1024.0 mb 0.00 in0.0 mm 0.00 in/hr0.0 mm/hr 0.00 in0.0 mm
03:06 AM 14.2°F-9.9°C 8.3°F-13.2°C 77% 12.0 mph S19.3 kmh S 15.0 mph24.1 kmh 30.24 in1024.0 mb 0.00 in0.0 mm 0.00 in/hr0.0 mm/hr 0.00 in0.0 mm
03:05 AM 14.2°F-9.9°C 8.3°F-13.2°C 77% 10.0 mph SSW16.1 kmh SSW 15.0 mph24.1 kmh 30.24 in1024.0 mb 0.00 in0.0 mm 0.00 in/hr0.0 mm/hr 0.00 in0.0 mm
03:04 AM 14.1°F-9.9°C 8.2°F-13.2°C 77% 13.0 mph S20.9 kmh S 15.0 mph24.1 kmh 30.24 in1024.0 mb 0.00 in0.0 mm 0.00 in/hr0.0 mm/hr 0.00 in0.0 mm
03:03 AM 14.1°F-9.9°C 8.2°F-13.2°C 77% 11.0 mph SSW17.7 kmh SSW 15.0 mph24.1 kmh 30.24 in1024.0 mb 0.00 in0.0 mm 0.00 in/hr0.0 mm/hr 0.00 in0.0 mm
03:02 AM 14.0°F-10.0°C 8.1°F-13.3°C 77% 8.0 mph S12.9 kmh S 14.0 mph22.5 kmh 30.24 in1024.0 mb 0.00 in0.0 mm 0.00 in/hr0.0 mm/hr 0.00 in0.0 mm
03:01 AM 14.0°F-10.0°C 8.1°F-13.3°C 77% 11.0 mph S17.7 kmh S 16.0 mph25.7 kmh 30.24 in1024.0 mb 0.00 in0.0 mm 0.00 in/hr0.0 mm/hr 0.00 in0.0 mm
03:00 AM 14.0°F-10.0°C 8.1°F-13.3°C 77% 8.0 mph S12.9 kmh S 16.0 mph25.7 kmh 30.24 in1024.0 mb 0.00 in0.0 mm 0.00 in/hr0.0 mm/hr 0.00 in0.0 mm
02:59 AM 14.0°F-10.0°C 8.1°F-13.3°C 77% 8.0 mph S12.9 kmh S 16.0 mph25.7 kmh 30.24 in1024.0 mb 0.00 in0.0 mm 0.00 in/hr0.0 mm/hr 0.00 in0.0 mm
02:58 AM 14.0°F-10.0°C 8.1°F-13.3°C 77% 8.0 mph S12.9 kmh S 16.0 mph25.7 kmh 30.24 in1024.0 mb 0.00 in0.0 mm 0.00 in/hr0.0 mm/hr 0.00 in0.0 mm
02:57 AM 13.9°F-10.1°C 8.0°F-13.3°C 77% 8.0 mph S12.9 kmh S 16.0 mph25.7 kmh 30.24 in1024.0 mb 0.00 in0.0 mm 0.00 in/hr0.0 mm/hr 0.00 in0.0 mm
02:56 AM 13.9°F-10.1°C 8.0°F-13.3°C 77% 13.0 mph S20.9 kmh S 16.0 mph25.7 kmh 30.24 in1024.0 mb 0.00 in0.0 mm 0.00 in/hr0.0 mm/hr 0.00 in0.0 mm
02:55 AM 13.9°F-10.1°C 8.0°F-13.3°C 77% 11.0 mph S17.7 kmh S 16.0 mph25.7 kmh 30.24 in1024.0 mb 0.00 in0.0 mm 0.00 in/hr0.0 mm/hr 0.00 in0.0 mm
02:54 AM 13.9°F-10.1°C 8.0°F-13.3°C 77% 9.0 mph S14.5 kmh S 16.0 mph25.7 kmh 30.24 in1024.0 mb 0.00 in0.0 mm 0.00 in/hr0.0 mm/hr 0.00 in0.0 mm
02:53 AM 13.9°F-10.1°C 8.0°F-13.3°C 77% 10.0 mph S16.1 kmh S 16.0 mph25.7 kmh 30.24 in1024.0 mb 0.00 in0.0 mm 0.00 in/hr0.0 mm/hr 0.00 in0.0 mm
02:52 AM 13.9°F-10.1°C 8.0°F-13.3°C 77% 11.0 mph S17.7 kmh S 16.0 mph25.7 kmh 30.24 in1024.0 mb 0.00 in0.0 mm 0.00 in/hr0.0 mm/hr 0.00 in0.0 mm
02:51 AM 13.9°F-10.1°C 8.0°F-13.3°C 77% 10.0 mph S16.1 kmh S 16.0 mph25.7 kmh 30.24 in1024.0 mb 0.00 in0.0 mm 0.00 in/hr0.0 mm/hr 0.00 in0.0 mm
02:50 AM 13.9°F-10.1°C 8.0°F-13.3°C 77% 9.0 mph S14.5 kmh S 16.0 mph25.7 kmh 30.25 in1024.4 mb 0.00 in0.0 mm 0.00 in/hr0.0 mm/hr 0.00 in0.0 mm
02:49 AM 13.9°F-10.1°C 8.0°F-13.3°C 77% 8.0 mph S12.9 kmh S 16.0 mph25.7 kmh 30.24 in1024.0 mb 0.00 in0.0 mm 0.00 in/hr0.0 mm/hr 0.00 in0.0 mm
02:48 AM 13.9°F-10.1°C 8.0°F-13.3°C 77% 11.0 mph S17.7 kmh S 16.0 mph25.7 kmh 30.24 in1024.0 mb 0.00 in0.0 mm 0.00 in/hr0.0 mm/hr 0.00 in0.0 mm
02:47 AM 13.9°F-10.1°C 8.0°F-13.3°C 77% 11.0 mph S17.7 kmh S 16.0 mph25.7 kmh 30.25 in1024.4 mb 0.00 in0.0 mm 0.00 in/hr0.0 mm/hr 0.00 in0.0 mm
02:46 AM 13.9°F-10.1°C 8.0°F-13.3°C 77% 9.0 mph S14.5 kmh S 16.0 mph25.7 kmh 30.25 in1024.4 mb 0.00 in0.0 mm 0.00 in/hr0.0 mm/hr 0.00 in0.0 mm
02:45 AM 13.9°F-10.1°C 8.0°F-13.3°C 77% 11.0 mph S17.7 kmh S 16.0 mph25.7 kmh 30.25 in1024.4 mb 0.00 in0.0 mm 0.00 in/hr0.0 mm/hr 0.00 in0.0 mm
02:44 AM 13.9°F-10.1°C 8.0°F-13.3°C 77% 11.0 mph S17.7 kmh S 16.0 mph25.7 kmh 30.25 in1024.4 mb 0.00 in0.0 mm 0.00 in/hr0.0 mm/hr 0.00 in0.0 mm
02:43 AM 13.9°F-10.1°C 8.0°F-13.3°C 77% 10.0 mph S16.1 kmh S 16.0 mph25.7 kmh 30.25 in1024.4 mb 0.00 in0.0 mm 0.00 in/hr0.0 mm/hr 0.00 in0.0 mm
02:42 AM 13.9°F-10.1°C 8.0°F-13.3°C 77% 10.0 mph SSE16.1 kmh SSE 16.0 mph25.7 kmh 30.25 in1024.4 mb 0.00 in0.0 mm 0.00 in/hr0.0 mm/hr 0.00 in0.0 mm
02:41 AM 13.9°F-10.1°C 8.0°F-13.3°C 77% 10.0 mph S16.1 kmh S 16.0 mph25.7 kmh 30.25 in1024.4 mb 0.00 in0.0 mm 0.00 in/hr0.0 mm/hr 0.00 in0.0 mm
02:40 AM 14.0°F-10.0°C 8.1°F-13.3°C 77% 13.0 mph S20.9 kmh S 16.0 mph25.7 kmh 30.25 in1024.4 mb 0.00 in0.0 mm 0.00 in/hr0.0 mm/hr 0.00 in0.0 mm
02:39 AM 14.0°F-10.0°C 8.1°F-13.3°C 77% 13.0 mph S20.9 kmh S 15.0 mph24.1 kmh 30.25 in1024.4 mb 0.00 in0.0 mm 0.00 in/hr0.0 mm/hr 0.00 in0.0 mm
02:38 AM 14.0°F-10.0°C 8.1°F-13.3°C 77% 13.0 mph S20.9 kmh S 15.0 mph24.1 kmh 30.25 in1024.4 mb 0.00 in0.0 mm 0.00 in/hr0.0 mm/hr 0.00 in0.0 mm
02:37 AM 14.0°F-10.0°C 8.1°F-13.3°C 77% 13.0 mph S20.9 kmh S 15.0 mph24.1 kmh 30.25 in1024.4 mb 0.00 in0.0 mm 0.00 in/hr0.0 mm/hr 0.00 in0.0 mm
02:36 AM 14.0°F-10.0°C 8.1°F-13.3°C 77% 10.0 mph S16.1 kmh S 15.0 mph24.1 kmh 30.25 in1024.4 mb 0.00 in0.0 mm 0.00 in/hr0.0 mm/hr 0.00 in0.0 mm
02:35 AM 14.0°F-10.0°C 8.1°F-13.3°C 77% 10.0 mph S16.1 kmh S 14.0 mph22.5 kmh 30.25 in1024.4 mb 0.00 in0.0 mm 0.00 in/hr0.0 mm/hr 0.00 in0.0 mm
02:34 AM 14.0°F-10.0°C 8.1°F-13.3°C 77% 9.0 mph S14.5 kmh S 14.0 mph22.5 kmh 30.26 in1024.7 mb 0.00 in0.0 mm 0.00 in/hr0.0 mm/hr 0.00 in0.0 mm
02:33 AM 14.0°F-10.0°C 8.1°F-13.3°C 77% 8.0 mph S12.9 kmh S 14.0 mph22.5 kmh 30.26 in1024.7 mb 0.00 in0.0 mm 0.00 in/hr0.0 mm/hr 0.00 in0.0 mm
02:32 AM 14.0°F-10.0°C 8.1°F-13.3°C 77% 11.0 mph S17.7 kmh S 14.0 mph22.5 kmh 30.26 in1024.7 mb 0.00 in0.0 mm 0.00 in/hr0.0 mm/hr 0.00 in0.0 mm
02:31 AM 14.0°F-10.0°C 8.1°F-13.3°C 77% 11.0 mph S17.7 kmh S 18.0 mph29.0 kmh 30.25 in1024.4 mb 0.00 in0.0 mm 0.00 in/hr0.0 mm/hr 0.00 in0.0 mm
02:30 AM 14.0°F-10.0°C 8.1°F-13.3°C 77% 14.0 mph S22.5 kmh S 18.0 mph29.0 kmh 30.26 in1024.7 mb 0.00 in0.0 mm 0.00 in/hr0.0 mm/hr 0.00 in0.0 mm
02:29 AM 14.0°F-10.0°C 8.1°F-13.3°C 77% 11.0 mph S17.7 kmh S 18.0 mph29.0 kmh 30.26 in1024.7 mb 0.00 in0.0 mm 0.00 in/hr0.0 mm/hr 0.00 in0.0 mm
02:28 AM 13.9°F-10.1°C 8.0°F-13.3°C 77% 13.0 mph S20.9 kmh S 18.0 mph29.0 kmh 30.26 in1024.7 mb 0.00 in0.0 mm 0.00 in/hr0.0 mm/hr 0.00 in0.0 mm
02:27 AM 13.9°F-10.1°C 8.0°F-13.3°C 77% 16.0 mph S25.7 kmh S 18.0 mph29.0 kmh 30.26 in1024.7 mb 0.00 in0.0 mm 0.00 in/hr0.0 mm/hr 0.00 in0.0 mm
02:26 AM 13.8°F-10.1°C 7.9°F-13.4°C 77% 10.0 mph S16.1 kmh S 18.0 mph29.0 kmh 30.26 in1024.7 mb 0.00 in0.0 mm 0.00 in/hr0.0 mm/hr 0.00 in0.0 mm
02:25 AM 13.8°F-10.1°C 7.9°F-13.4°C 77% 10.0 mph S16.1 kmh S 18.0 mph29.0 kmh 30.26 in1024.7 mb 0.00 in0.0 mm 0.00 in/hr0.0 mm/hr 0.00 in0.0 mm
02:24 AM 13.8°F-10.1°C 7.9°F-13.4°C 77% 10.0 mph S16.1 kmh S 17.0 mph27.4 kmh 30.26 in1024.7 mb 0.00 in0.0 mm 0.00 in/hr0.0 mm/hr 0.00 in0.0 mm
02:23 AM 13.8°F-10.1°C 7.9°F-13.4°C 77% 10.0 mph S16.1 kmh S 17.0 mph27.4 kmh 30.26 in1024.7 mb 0.00 in0.0 mm 0.00 in/hr0.0 mm/hr 0.00 in0.0 mm
02:22 AM 13.8°F-10.1°C 7.9°F-13.4°C 77% 12.0 mph S19.3 kmh S 17.0 mph27.4 kmh 30.26 in1024.7 mb 0.00 in0.0 mm 0.00 in/hr0.0 mm/hr 0.00 in0.0 mm
02:21 AM 13.7°F-10.2°C 7.8°F-13.4°C 77% 9.0 mph S14.5 kmh S 17.0 mph27.4 kmh 30.26 in1024.7 mb 0.00 in0.0 mm 0.00 in/hr0.0 mm/hr 0.00 in0.0 mm
02:20 AM 13.8°F-10.1°C 7.9°F-13.4°C 77% 8.0 mph S12.9 kmh S 17.0 mph27.4 kmh 30.26 in1024.7 mb 0.00 in0.0 mm 0.00 in/hr0.0 mm/hr 0.00 in0.0 mm
02:19 AM 13.7°F-10.2°C 7.8°F-13.4°C 77% 9.0 mph S14.5 kmh S 17.0 mph27.4 kmh 30.26 in1024.7 mb 0.00 in0.0 mm 0.00 in/hr0.0 mm/hr 0.00 in0.0 mm
02:18 AM 13.7°F-10.2°C 7.8°F-13.4°C 77% 11.0 mph S17.7 kmh S 17.0 mph27.4 kmh 30.26 in1024.7 mb 0.00 in0.0 mm 0.00 in/hr0.0 mm/hr 0.00 in0.0 mm
02:17 AM 13.7°F-10.2°C 7.8°F-13.4°C 77% 8.0 mph S12.9 kmh S 17.0 mph27.4 kmh 30.26 in1024.7 mb 0.00 in0.0 mm 0.00 in/hr0.0 mm/hr 0.00 in0.0 mm
02:16 AM 13.7°F-10.2°C 7.8°F-13.4°C 77% 12.0 mph S19.3 kmh S 17.0 mph27.4 kmh 30.26 in1024.7 mb 0.00 in0.0 mm 0.00 in/hr0.0 mm/hr 0.00 in0.0 mm
02:15 AM 13.8°F-10.1°C 7.9°F-13.4°C 77% 9.0 mph S14.5 kmh S 17.0 mph27.4 kmh 30.26 in1024.7 mb 0.00 in0.0 mm 0.00 in/hr0.0 mm/hr 0.00 in0.0 mm
02:14 AM 13.8°F-10.1°C 7.9°F-13.4°C 77% 12.0 mph S19.3 kmh S 17.0 mph27.4 kmh 30.26 in1024.7 mb 0.00 in0.0 mm 0.00 in/hr0.0 mm/hr 0.00 in0.0 mm
02:13 AM 13.8°F-10.1°C 7.9°F-13.4°C 77% 10.0 mph S16.1 kmh S 17.0 mph27.4 kmh 30.26 in1024.7 mb 0.00 in0.0 mm 0.00 in/hr0.0 mm/hr 0.00 in0.0 mm
02:12 AM 13.7°F-10.2°C 7.8°F-13.4°C 77% 10.0 mph S16.1 kmh S 17.0 mph27.4 kmh 30.26 in1024.7 mb 0.00 in0.0 mm 0.00 in/hr0.0 mm/hr 0.00 in0.0 mm
02:11 AM 13.8°F-10.1°C 7.9°F-13.4°C 77% 7.0 mph S11.3 kmh S 17.0 mph27.4 kmh 30.26 in1024.7 mb 0.00 in0.0 mm 0.00 in/hr0.0 mm/hr 0.00 in0.0 mm
02:10 AM 13.8°F-10.1°C 7.9°F-13.4°C 77% 11.0 mph S17.7 kmh S 17.0 mph27.4 kmh 30.26 in1024.7 mb 0.00 in0.0 mm 0.00 in/hr0.0 mm/hr 0.00 in0.0 mm
02:09 AM 13.7°F-10.2°C 7.8°F-13.4°C 77% 12.0 mph S19.3 kmh S 17.0 mph27.4 kmh 30.26 in1024.7 mb 0.00 in0.0 mm 0.00 in/hr0.0 mm/hr 0.00 in0.0 mm
02:08 AM 13.8°F-10.1°C 7.9°F-13.4°C 77% 12.0 mph S19.3 kmh S 17.0 mph27.4 kmh 30.26 in1024.7 mb 0.00 in0.0 mm 0.00 in/hr0.0 mm/hr 0.00 in0.0 mm
02:07 AM 13.7°F-10.2°C 7.8°F-13.4°C 77% 12.0 mph S19.3 kmh S 17.0 mph27.4 kmh 30.26 in1024.7 mb 0.00 in0.0 mm 0.00 in/hr0.0 mm/hr 0.00 in0.0 mm
02:06 AM 13.7°F-10.2°C 7.8°F-13.4°C 77% 15.0 mph S24.1 kmh S 17.0 mph27.4 kmh 30.26 in1024.7 mb 0.00 in0.0 mm 0.00 in/hr0.0 mm/hr 0.00 in0.0 mm
02:05 AM 13.7°F-10.2°C 7.8°F-13.4°C 77% 11.0 mph S17.7 kmh S 17.0 mph27.4 kmh 30.26 in1024.7 mb 0.00 in0.0 mm 0.00 in/hr0.0 mm/hr 0.00 in0.0 mm
02:04 AM 13.7°F-10.2°C 7.8°F-13.4°C 77% 15.0 mph S24.1 kmh S 17.0 mph27.4 kmh 30.26 in1024.7 mb 0.00 in0.0 mm 0.00 in/hr0.0 mm/hr 0.00 in0.0 mm
02:03 AM 13.7°F-10.2°C 7.8°F-13.4°C 77% 14.0 mph S22.5 kmh S 17.0 mph27.4 kmh 30.26 in1024.7 mb 0.00 in0.0 mm 0.00 in/hr0.0 mm/hr 0.00 in0.0 mm
02:02 AM 13.7°F-10.2°C 7.8°F-13.4°C 77% 15.0 mph S24.1 kmh S 16.0 mph25.7 kmh 30.26 in1024.7 mb 0.00 in0.0 mm 0.00 in/hr0.0 mm/hr 0.00 in0.0 mm
02:01 AM 13.7°F-10.2°C 7.8°F-13.4°C 77% 13.0 mph S20.9 kmh S 19.0 mph30.6 kmh 30.26 in1024.7 mb 0.00 in0.0 mm 0.00 in/hr0.0 mm/hr 0.00 in0.0 mm
02:00 AM 13.7°F-10.2°C 7.8°F-13.4°C 77% 14.0 mph S22.5 kmh S 19.0 mph30.6 kmh 30.27 in1025.1 mb 0.00 in0.0 mm 0.00 in/hr0.0 mm/hr 0.00 in0.0 mm
01:59 AM 13.7°F-10.2°C 7.8°F-13.4°C 77% 12.0 mph S19.3 kmh S 19.0 mph30.6 kmh 30.26 in1024.7 mb 0.00 in0.0 mm 0.00 in/hr0.0 mm/hr 0.00 in0.0 mm
01:58 AM 13.7°F-10.2°C 7.8°F-13.4°C 77% 13.0 mph S20.9 kmh S 19.0 mph30.6 kmh 30.26 in1024.7 mb 0.00 in0.0 mm 0.00 in/hr0.0 mm/hr 0.00 in0.0 mm
01:57 AM 13.7°F-10.2°C 7.8°F-13.4°C 77% 13.0 mph S20.9 kmh S 19.0 mph30.6 kmh 30.26 in1024.7 mb 0.00 in0.0 mm 0.00 in/hr0.0 mm/hr 0.00 in0.0 mm
01:56 AM 13.7°F-10.2°C 7.8°F-13.4°C 77% 13.0 mph SSE20.9 kmh SSE 19.0 mph30.6 kmh 30.27 in1025.1 mb 0.00 in0.0 mm 0.00 in/hr0.0 mm/hr 0.00 in0.0 mm
01:55 AM 13.7°F-10.2°C 7.8°F-13.4°C 77% 12.0 mph SSW19.3 kmh SSW 19.0 mph30.6 kmh 30.27 in1025.1 mb 0.00 in0.0 mm 0.00 in/hr0.0 mm/hr 0.00 in0.0 mm
01:54 AM 13.7°F-10.2°C 7.8°F-13.4°C 77% 12.0 mph S19.3 kmh S 19.0 mph30.6 kmh 30.27 in1025.1 mb 0.00 in0.0 mm 0.00 in/hr0.0 mm/hr 0.00 in0.0 mm
01:53 AM 13.7°F-10.2°C 7.8°F-13.4°C 77% 12.0 mph S19.3 kmh S 19.0 mph30.6 kmh 30.27 in1025.1 mb 0.00 in0.0 mm 0.00 in/hr0.0 mm/hr 0.00 in0.0 mm
01:52 AM 13.7°F-10.2°C 7.8°F-13.4°C 77% 13.0 mph S20.9 kmh S 19.0 mph30.6 kmh 30.27 in1025.1 mb 0.00 in0.0 mm 0.00 in/hr0.0 mm/hr 0.00 in0.0 mm
01:51 AM 13.7°F-10.2°C 7.8°F-13.4°C 77% 17.0 mph S27.4 kmh S 19.0 mph30.6 kmh 30.27 in1025.1 mb 0.00 in0.0 mm 0.00 in/hr0.0 mm/hr 0.00 in0.0 mm
01:50 AM 13.7°F-10.2°C 7.8°F-13.4°C 77% 13.0 mph S20.9 kmh S 19.0 mph30.6 kmh 30.27 in1025.1 mb 0.00 in0.0 mm 0.00 in/hr0.0 mm/hr 0.00 in0.0 mm
01:49 AM 13.7°F-10.2°C 7.8°F-13.4°C 77% 12.0 mph S19.3 kmh S 19.0 mph30.6 kmh 30.27 in1025.1 mb 0.00 in0.0 mm 0.00 in/hr0.0 mm/hr 0.00 in0.0 mm
01:48 AM 13.7°F-10.2°C 7.8°F-13.4°C 77% 11.0 mph S17.7 kmh S 19.0 mph30.6 kmh 30.27 in1025.1 mb 0.00 in0.0 mm 0.00 in/hr0.0 mm/hr 0.00 in0.0 mm
01:47 AM 13.7°F-10.2°C 7.8°F-13.4°C 77% 16.0 mph S25.7 kmh S 19.0 mph30.6 kmh 30.27 in1025.1 mb 0.00 in0.0 mm 0.00 in/hr0.0 mm/hr 0.00 in0.0 mm
01:46 AM 13.7°F-10.2°C 7.8°F-13.4°C 77% 18.0 mph S29.0 kmh S 19.0 mph30.6 kmh 30.27 in1025.1 mb 0.00 in0.0 mm 0.00 in/hr0.0 mm/hr 0.00 in0.0 mm
01:45 AM 13.7°F-10.2°C 7.8°F-13.4°C 77% 12.0 mph S19.3 kmh S 19.0 mph30.6 kmh 30.27 in1025.1 mb 0.00 in0.0 mm 0.00 in/hr0.0 mm/hr 0.00 in0.0 mm
01:44 AM 13.7°F-10.2°C 7.8°F-13.4°C 77% 14.0 mph S22.5 kmh S 19.0 mph30.6 kmh 30.27 in1025.1 mb 0.00 in0.0 mm 0.00 in/hr0.0 mm/hr 0.00 in0.0 mm
01:43 AM 13.6°F-10.2°C 7.7°F-13.5°C 77% 11.0 mph S17.7 kmh S 19.0 mph30.6 kmh 30.27 in1025.1 mb 0.00 in0.0 mm 0.00 in/hr0.0 mm/hr 0.00 in0.0 mm
01:42 AM 13.6°F-10.2°C 7.7°F-13.5°C 77% 13.0 mph S20.9 kmh S 19.0 mph30.6 kmh 30.27 in1025.1 mb 0.00 in0.0 mm 0.00 in/hr0.0 mm/hr 0.00 in0.0 mm
01:41 AM 13.6°F-10.2°C 7.7°F-13.5°C 77% 15.0 mph S24.1 kmh S 19.0 mph30.6 kmh 30.27 in1025.1 mb 0.00 in0.0 mm 0.00 in/hr0.0 mm/hr 0.00 in0.0 mm
01:40 AM 13.6°F-10.2°C 7.7°F-13.5°C 77% 12.0 mph S19.3 kmh S 19.0 mph30.6 kmh 30.27 in1025.1 mb 0.00 in0.0 mm 0.00 in/hr0.0 mm/hr 0.00 in0.0 mm
01:39 AM 13.6°F-10.2°C 7.7°F-13.5°C 77% 11.0 mph S17.7 kmh S 19.0 mph30.6 kmh 30.27 in1025.1 mb 0.00 in0.0 mm 0.00 in/hr0.0 mm/hr 0.00 in0.0 mm
01:38 AM 13.5°F-10.3°C 7.7°F-13.5°C 77% 11.0 mph S17.7 kmh S 19.0 mph30.6 kmh 30.27 in1025.1 mb 0.00 in0.0 mm 0.00 in/hr0.0 mm/hr 0.00 in0.0 mm
01:37 AM 13.5°F-10.3°C 7.9°F-13.4°C 78% 13.0 mph S20.9 kmh S 18.0 mph29.0 kmh 30.27 in1025.1 mb 0.00 in0.0 mm 0.00 in/hr0.0 mm/hr 0.00 in0.0 mm
01:36 AM 13.5°F-10.3°C 7.9°F-13.4°C 78% 12.0 mph S19.3 kmh S 18.0 mph29.0 kmh 30.27 in1025.1 mb 0.00 in0.0 mm 0.00 in/hr0.0 mm/hr 0.00 in0.0 mm
01:35 AM 13.5°F-10.3°C 7.9°F-13.4°C 78% 15.0 mph SSE24.1 kmh SSE 18.0 mph29.0 kmh 30.27 in1025.1 mb 0.00 in0.0 mm 0.00 in/hr0.0 mm/hr 0.00 in0.0 mm
01:34 AM 13.5°F-10.3°C 7.9°F-13.4°C 78% 14.0 mph S22.5 kmh S 18.0 mph29.0 kmh 30.27 in1025.1 mb 0.00 in0.0 mm 0.00 in/hr0.0 mm/hr 0.00 in0.0 mm
01:33 AM 13.4°F-10.3°C 7.8°F-13.4°C 78% 15.0 mph S24.1 kmh S 18.0 mph29.0 kmh 30.27 in1025.1 mb 0.00 in0.0 mm 0.00 in/hr0.0 mm/hr 0.00 in0.0 mm
01:32 AM 13.4°F-10.3°C 7.8°F-13.4°C 78% 16.0 mph S25.7 kmh S 18.0 mph29.0 kmh 30.27 in1025.1 mb 0.00 in0.0 mm 0.00 in/hr0.0 mm/hr 0.00 in0.0 mm
01:31 AM 13.4°F-10.3°C 7.8°F-13.4°C 78% 14.0 mph S22.5 kmh S 21.0 mph33.8 kmh 30.27 in1025.1 mb 0.00 in0.0 mm 0.00 in/hr0.0 mm/hr 0.00 in0.0 mm
01:30 AM 13.4°F-10.3°C 7.8°F-13.4°C 78% 13.0 mph S20.9 kmh S 21.0 mph33.8 kmh 30.27 in1025.1 mb 0.00 in0.0 mm 0.00 in/hr0.0 mm/hr 0.00 in0.0 mm
01:29 AM 13.4°F-10.3°C 7.8°F-13.4°C 78% 17.0 mph S27.4 kmh S 21.0 mph33.8 kmh 30.27 in1025.1 mb 0.00 in0.0 mm 0.00 in/hr0.0 mm/hr 0.00 in0.0 mm
01:28 AM 13.4°F-10.3°C 7.8°F-13.4°C 78% 14.0 mph S22.5 kmh S 21.0 mph33.8 kmh 30.27 in1025.1 mb 0.00 in0.0 mm 0.00 in/hr0.0 mm/hr 0.00 in0.0 mm
01:27 AM 13.3°F-10.4°C 7.7°F-13.5°C 78% 13.0 mph S20.9 kmh S 21.0 mph33.8 kmh 30.27 in1025.1 mb 0.00 in0.0 mm 0.00 in/hr0.0 mm/hr 0.00 in0.0 mm
01:26 AM 13.3°F-10.4°C 7.7°F-13.5°C 78% 14.0 mph S22.5 kmh S 21.0 mph33.8 kmh 30.27 in1025.1 mb 0.00 in0.0 mm 0.00 in/hr0.0 mm/hr 0.00 in0.0 mm
01:25 AM 13.3°F-10.4°C 7.7°F-13.5°C 78% 16.0 mph S25.7 kmh S 21.0 mph33.8 kmh 30.27 in1025.1 mb 0.00 in0.0 mm 0.00 in/hr0.0 mm/hr 0.00 in0.0 mm
01:24 AM 13.3°F-10.4°C 7.7°F-13.5°C 78% 14.0 mph S22.5 kmh S 21.0 mph33.8 kmh 30.27 in1025.1 mb 0.00 in0.0 mm 0.00 in/hr0.0 mm/hr 0.00 in0.0 mm
01:23 AM 13.3°F-10.4°C 7.7°F-13.5°C 78% 12.0 mph S19.3 kmh S 21.0 mph33.8 kmh 30.27 in1025.1 mb 0.00 in0.0 mm 0.00 in/hr0.0 mm/hr 0.00 in0.0 mm
01:22 AM 13.3°F-10.4°C 7.7°F-13.5°C 78% 16.0 mph S25.7 kmh S 21.0 mph33.8 kmh 30.28 in1025.4 mb 0.00 in0.0 mm 0.00 in/hr0.0 mm/hr 0.00 in0.0 mm
01:21 AM 13.3°F-10.4°C 7.7°F-13.5°C 78% 15.0 mph S24.1 kmh S 21.0 mph33.8 kmh 30.28 in1025.4 mb 0.00 in0.0 mm 0.00 in/hr0.0 mm/hr 0.00 in0.0 mm
01:20 AM 13.2°F-10.4°C 7.6°F-13.6°C 78% 15.0 mph S24.1 kmh S 21.0 mph33.8 kmh 30.28 in1025.4 mb 0.00 in0.0 mm 0.00 in/hr0.0 mm/hr 0.00 in0.0 mm
01:19 AM 13.2°F-10.4°C 7.9°F-13.4°C 79% 15.0 mph S24.1 kmh S 21.0 mph33.8 kmh 30.28 in1025.4 mb 0.00 in0.0 mm 0.00 in/hr0.0 mm/hr 0.00 in0.0 mm
01:18 AM 13.2°F-10.4°C 7.9°F-13.4°C 79% 14.0 mph S22.5 kmh S 21.0 mph33.8 kmh 30.28 in1025.4 mb 0.00 in0.0 mm 0.00 in/hr0.0 mm/hr 0.00 in0.0 mm
01:17 AM 13.2°F-10.4°C 7.9°F-13.4°C 79% 16.0 mph S25.7 kmh S 21.0 mph33.8 kmh 30.28 in1025.4 mb 0.00 in0.0 mm 0.00 in/hr0.0 mm/hr 0.00 in0.0 mm
01:16 AM 13.2°F-10.4°C 7.6°F-13.6°C 78% 12.0 mph S19.3 kmh S 21.0 mph33.8 kmh 30.28 in1025.4 mb 0.00 in0.0 mm 0.00 in/hr0.0 mm/hr 0.00 in0.0 mm
01:15 AM 13.2°F-10.4°C 7.9°F-13.4°C 79% 16.0 mph SSE25.7 kmh SSE 19.0 mph30.6 kmh 30.28 in1025.4 mb 0.00 in0.0 mm 0.00 in/hr0.0 mm/hr 0.00 in0.0 mm
01:14 AM 13.2°F-10.4°C 7.9°F-13.4°C 79% 13.0 mph S20.9 kmh S 19.0 mph30.6 kmh 30.28 in1025.4 mb 0.00 in0.0 mm 0.00 in/hr0.0 mm/hr 0.00 in0.0 mm
01:13 AM 13.1°F-10.5°C 7.8°F-13.4°C 79% 13.0 mph S20.9 kmh S 19.0 mph30.6 kmh 30.28 in1025.4 mb 0.00 in0.0 mm 0.00 in/hr0.0 mm/hr 0.00 in0.0 mm
01:12 AM 13.1°F-10.5°C 7.8°F-13.4°C 79% 13.0 mph S20.9 kmh S 19.0 mph30.6 kmh 30.28 in1025.4 mb 0.00 in0.0 mm 0.00 in/hr0.0 mm/hr 0.00 in0.0 mm
01:11 AM 13.1°F-10.5°C 7.8°F-13.4°C 79% 12.0 mph SSW19.3 kmh SSW 19.0 mph30.6 kmh 30.28 in1025.4 mb 0.00 in0.0 mm 0.00 in/hr0.0 mm/hr 0.00 in0.0 mm
01:10 AM 13.1°F-10.5°C 7.8°F-13.4°C 79% 13.0 mph S20.9 kmh S 19.0 mph30.6 kmh 30.28 in1025.4 mb 0.00 in0.0 mm 0.00 in/hr0.0 mm/hr 0.00 in0.0 mm
01:09 AM 13.0°F-10.6°C 7.7°F-13.5°C 79% 16.0 mph S25.7 kmh S 19.0 mph30.6 kmh 30.28 in1025.4 mb 0.00 in0.0 mm 0.00 in/hr0.0 mm/hr 0.00 in0.0 mm
01:08 AM 13.0°F-10.6°C 7.7°F-13.5°C 79% 13.0 mph S20.9 kmh S 19.0 mph30.6 kmh 30.28 in1025.4 mb 0.00 in0.0 mm 0.00 in/hr0.0 mm/hr 0.00 in0.0 mm
01:07 AM 13.1°F-10.5°C 7.8°F-13.4°C 79% 9.0 mph S14.5 kmh S 19.0 mph30.6 kmh 30.29 in1025.7 mb 0.00 in0.0 mm 0.00 in/hr0.0 mm/hr 0.00 in0.0 mm
01:06 AM 13.0°F-10.6°C 7.7°F-13.5°C 79% 11.0 mph S17.7 kmh S 19.0 mph30.6 kmh 30.29 in1025.7 mb 0.00 in0.0 mm 0.00 in/hr0.0 mm/hr 0.00 in0.0 mm
01:05 AM 13.1°F-10.5°C 7.8°F-13.4°C 79% 8.0 mph SSW12.9 kmh SSW 17.0 mph27.4 kmh 30.29 in1025.7 mb 0.00 in0.0 mm 0.00 in/hr0.0 mm/hr 0.00 in0.0 mm
01:04 AM 13.0°F-10.6°C 7.7°F-13.5°C 79% 11.0 mph S17.7 kmh S 17.0 mph27.4 kmh 30.29 in1025.7 mb 0.00 in0.0 mm 0.00 in/hr0.0 mm/hr 0.00 in0.0 mm
01:03 AM 13.0°F-10.6°C 7.7°F-13.5°C 79% 13.0 mph S20.9 kmh S 17.0 mph27.4 kmh 30.29 in1025.7 mb 0.00 in0.0 mm 0.00 in/hr0.0 mm/hr 0.00 in0.0 mm
01:02 AM 13.0°F-10.6°C 7.7°F-13.5°C 79% 11.0 mph S17.7 kmh S 14.0 mph22.5 kmh 30.29 in1025.7 mb 0.00 in0.0 mm 0.00 in/hr0.0 mm/hr 0.00 in0.0 mm
01:01 AM 13.1°F-10.5°C 7.8°F-13.4°C 79% 12.0 mph S19.3 kmh S 19.0 mph30.6 kmh 30.29 in1025.7 mb 0.00 in0.0 mm 0.00 in/hr0.0 mm/hr 0.00 in0.0 mm
01:00 AM 13.1°F-10.5°C 7.8°F-13.4°C 79% 14.0 mph S22.5 kmh S 19.0 mph30.6 kmh 30.29 in1025.7 mb 0.00 in0.0 mm 0.00 in/hr0.0 mm/hr 0.00 in0.0 mm
12:59 AM 13.1°F-10.5°C 7.8°F-13.4°C 79% 15.0 mph S24.1 kmh S 19.0 mph30.6 kmh 30.29 in1025.7 mb 0.00 in0.0 mm 0.00 in/hr0.0 mm/hr 0.00 in0.0 mm
12:58 AM 13.1°F-10.5°C 7.8°F-13.4°C 79% 12.0 mph S19.3 kmh S 19.0 mph30.6 kmh 30.29 in1025.7 mb 0.00 in0.0 mm 0.00 in/hr0.0 mm/hr 0.00 in0.0 mm
12:57 AM 13.1°F-10.5°C 7.8°F-13.4°C 79% 14.0 mph S22.5 kmh S 19.0 mph30.6 kmh 30.29 in1025.7 mb 0.00 in0.0 mm 0.00 in/hr0.0 mm/hr 0.00 in0.0 mm
12:56 AM 13.1°F-10.5°C 7.8°F-13.4°C 79% 13.0 mph S20.9 kmh S 19.0 mph30.6 kmh 30.30 in1026.1 mb 0.00 in0.0 mm 0.00 in/hr0.0 mm/hr 0.00 in0.0 mm
12:55 AM 13.1°F-10.5°C 7.8°F-13.4°C 79% 17.0 mph S27.4 kmh S 19.0 mph30.6 kmh 30.30 in1026.1 mb 0.00 in0.0 mm 0.00 in/hr0.0 mm/hr 0.00 in0.0 mm
12:54 AM 13.1°F-10.5°C 7.8°F-13.4°C 79% 14.0 mph S22.5 kmh S 19.0 mph30.6 kmh 30.30 in1026.1 mb 0.00 in0.0 mm 0.00 in/hr0.0 mm/hr 0.00 in0.0 mm
12:53 AM 13.1°F-10.5°C 7.8°F-13.4°C 79% 9.0 mph S14.5 kmh S 19.0 mph30.6 kmh 30.30 in1026.1 mb 0.00 in0.0 mm 0.00 in/hr0.0 mm/hr 0.00 in0.0 mm
12:52 AM 13.1°F-10.5°C 7.8°F-13.4°C 79% 10.0 mph S16.1 kmh S 19.0 mph30.6 kmh 30.30 in1026.1 mb 0.00 in0.0 mm 0.00 in/hr0.0 mm/hr 0.00 in0.0 mm
12:51 AM 13.1°F-10.5°C 7.8°F-13.4°C 79% 12.0 mph SSE19.3 kmh SSE 19.0 mph30.6 kmh 30.30 in1026.1 mb 0.00 in0.0 mm 0.00 in/hr0.0 mm/hr 0.00 in0.0 mm
12:50 AM 13.1°F-10.5°C 7.8°F-13.4°C 79% 16.0 mph S25.7 kmh S 19.0 mph30.6 kmh 30.30 in1026.1 mb 0.00 in0.0 mm 0.00 in/hr0.0 mm/hr 0.00 in0.0 mm
12:49 AM 13.1°F-10.5°C 7.8°F-13.4°C 79% 11.0 mph SSE17.7 kmh SSE 19.0 mph30.6 kmh 30.30 in1026.1 mb 0.00 in0.0 mm 0.00 in/hr0.0 mm/hr 0.00 in0.0 mm
12:48 AM 13.1°F-10.5°C 7.8°F-13.4°C 79% 15.0 mph S24.1 kmh S 19.0 mph30.6 kmh 30.30 in1026.1 mb 0.00 in0.0 mm 0.00 in/hr0.0 mm/hr 0.00 in0.0 mm
12:47 AM 13.1°F-10.5°C 7.8°F-13.4°C 79% 9.0 mph S14.5 kmh S 19.0 mph30.6 kmh 30.30 in1026.1 mb 0.00 in0.0 mm 0.00 in/hr0.0 mm/hr 0.00 in0.0 mm
12:46 AM 13.1°F-10.5°C 7.8°F-13.4°C 79% 14.0 mph S22.5 kmh S 19.0 mph30.6 kmh 30.30 in1026.1 mb 0.00 in0.0 mm 0.00 in/hr0.0 mm/hr 0.00 in0.0 mm
12:45 AM 13.1°F-10.5°C 7.8°F-13.4°C 79% 14.0 mph S22.5 kmh S 19.0 mph30.6 kmh 30.30 in1026.1 mb 0.00 in0.0 mm 0.00 in/hr0.0 mm/hr 0.00 in0.0 mm
12:44 AM 13.1°F-10.5°C 7.8°F-13.4°C 79% 12.0 mph SSE19.3 kmh SSE 19.0 mph30.6 kmh 30.30 in1026.1 mb 0.00 in0.0 mm 0.00 in/hr0.0 mm/hr 0.00 in0.0 mm
12:43 AM 13.1°F-10.5°C 7.8°F-13.4°C 79% 11.0 mph S17.7 kmh S 19.0 mph30.6 kmh 30.30 in1026.1 mb 0.00 in0.0 mm 0.00 in/hr0.0 mm/hr 0.00 in0.0 mm
12:42 AM 13.1°F-10.5°C 7.8°F-13.4°C 79% 12.0 mph SSE19.3 kmh SSE 18.0 mph29.0 kmh 30.30 in1026.1 mb 0.00 in0.0 mm 0.00 in/hr0.0 mm/hr 0.00 in0.0 mm
12:41 AM 13.1°F-10.5°C 7.8°F-13.4°C 79% 16.0 mph S25.7 kmh S 18.0 mph29.0 kmh 30.30 in1026.1 mb 0.00 in0.0 mm 0.00 in/hr0.0 mm/hr 0.00 in0.0 mm
12:40 AM 13.1°F-10.5°C 7.8°F-13.4°C 79% 15.0 mph SSE24.1 kmh SSE 18.0 mph29.0 kmh 30.31 in1026.4 mb 0.00 in0.0 mm 0.00 in/hr0.0 mm/hr 0.00 in0.0 mm
12:39 AM 13.1°F-10.5°C 7.8°F-13.4°C 79% 10.0 mph S16.1 kmh S 18.0 mph29.0 kmh 30.31 in1026.4 mb 0.00 in0.0 mm 0.00 in/hr0.0 mm/hr 0.00 in0.0 mm
12:38 AM 13.1°F-10.5°C 7.8°F-13.4°C 79% 12.0 mph S19.3 kmh S 18.0 mph29.0 kmh 30.31 in1026.4 mb 0.00 in0.0 mm 0.00 in/hr0.0 mm/hr 0.00 in0.0 mm
12:37 AM 13.1°F-10.5°C 7.8°F-13.4°C 79% 12.0 mph S19.3 kmh S 18.0 mph29.0 kmh 30.31 in1026.4 mb 0.00 in0.0 mm 0.00 in/hr0.0 mm/hr 0.00 in0.0 mm
12:36 AM 13.1°F-10.5°C 7.8°F-13.4°C 79% 13.0 mph SSE20.9 kmh SSE 18.0 mph29.0 kmh 30.31 in1026.4 mb 0.00 in0.0 mm 0.00 in/hr0.0 mm/hr 0.00 in0.0 mm
12:35 AM 13.1°F-10.5°C 7.8°F-13.4°C 79% 18.0 mph S29.0 kmh S 18.0 mph29.0 kmh 30.31 in1026.4 mb 0.00 in0.0 mm 0.00 in/hr0.0 mm/hr 0.00 in0.0 mm
12:34 AM 13.1°F-10.5°C 7.8°F-13.4°C 79% 15.0 mph S24.1 kmh S 17.0 mph27.4 kmh 30.31 in1026.4 mb 0.00 in0.0 mm 0.00 in/hr0.0 mm/hr 0.00 in0.0 mm
12:33 AM 13.1°F-10.5°C 7.8°F-13.4°C 79% 14.0 mph S22.5 kmh S 17.0 mph27.4 kmh 30.32 in1026.8 mb 0.00 in0.0 mm 0.00 in/hr0.0 mm/hr 0.00 in0.0 mm
12:32 AM 13.1°F-10.5°C 7.8°F-13.4°C 79% 10.0 mph S16.1 kmh S 17.0 mph27.4 kmh 30.31 in1026.4 mb 0.00 in0.0 mm 0.00 in/hr0.0 mm/hr 0.00 in0.0 mm
12:31 AM 13.1°F-10.5°C 7.8°F-13.4°C 79% 15.0 mph S24.1 kmh S 21.0 mph33.8 kmh 30.32 in1026.8 mb 0.00 in0.0 mm 0.00 in/hr0.0 mm/hr 0.00 in0.0 mm
12:30 AM 13.1°F-10.5°C 7.8°F-13.4°C 79% 14.0 mph S22.5 kmh S 21.0 mph33.8 kmh 30.32 in1026.8 mb 0.00 in0.0 mm 0.00 in/hr0.0 mm/hr 0.00 in0.0 mm
12:29 AM 13.1°F-10.5°C 7.8°F-13.4°C 79% 13.0 mph S20.9 kmh S 21.0 mph33.8 kmh 30.32 in1026.8 mb 0.00 in0.0 mm 0.00 in/hr0.0 mm/hr 0.00 in0.0 mm
12:28 AM 13.1°F-10.5°C 7.8°F-13.4°C 79% 12.0 mph S19.3 kmh S 21.0 mph33.8 kmh 30.32 in1026.8 mb 0.00 in0.0 mm 0.00 in/hr0.0 mm/hr 0.00 in0.0 mm
12:27 AM 13.1°F-10.5°C 7.8°F-13.4°C 79% 14.0 mph SSE22.5 kmh SSE 21.0 mph33.8 kmh 30.32 in1026.8 mb 0.00 in0.0 mm 0.00 in/hr0.0 mm/hr 0.00 in0.0 mm
12:26 AM 13.1°F-10.5°C 7.8°F-13.4°C 79% 13.0 mph S20.9 kmh S 21.0 mph33.8 kmh 30.32 in1026.8 mb 0.00 in0.0 mm 0.00 in/hr0.0 mm/hr 0.00 in0.0 mm
12:25 AM 13.1°F-10.5°C 7.8°F-13.4°C 79% 16.0 mph S25.7 kmh S 21.0 mph33.8 kmh 30.32 in1026.8 mb 0.00 in0.0 mm 0.00 in/hr0.0 mm/hr 0.00 in0.0 mm
12:24 AM 13.1°F-10.5°C 7.8°F-13.4°C 79% 15.0 mph S24.1 kmh S 21.0 mph33.8 kmh 30.32 in1026.8 mb 0.00 in0.0 mm 0.00 in/hr0.0 mm/hr 0.00 in0.0 mm
12:23 AM 13.1°F-10.5°C 7.8°F-13.4°C 79% 14.0 mph S22.5 kmh S 21.0 mph33.8 kmh 30.32 in1026.8 mb 0.00 in0.0 mm 0.00 in/hr0.0 mm/hr 0.00 in0.0 mm
12:22 AM 13.2°F-10.4°C 7.9°F-13.4°C 79% 12.0 mph S19.3 kmh S 21.0 mph33.8 kmh 30.32 in1026.8 mb 0.00 in0.0 mm 0.00 in/hr0.0 mm/hr 0.00 in0.0 mm
12:21 AM 13.2°F-10.4°C 7.9°F-13.4°C 79% 13.0 mph S20.9 kmh S 21.0 mph33.8 kmh 30.32 in1026.8 mb 0.00 in0.0 mm 0.00 in/hr0.0 mm/hr 0.00 in0.0 mm
12:20 AM 13.2°F-10.4°C 7.9°F-13.4°C 79% 14.0 mph S22.5 kmh S 21.0 mph33.8 kmh 30.32 in1026.8 mb 0.00 in0.0 mm 0.00 in/hr0.0 mm/hr 0.00 in0.0 mm
12:19 AM 13.2°F-10.4°C 7.9°F-13.4°C 79% 15.0 mph SSE24.1 kmh SSE 21.0 mph33.8 kmh 30.32 in1026.8 mb 0.00 in0.0 mm 0.00 in/hr0.0 mm/hr 0.00 in0.0 mm
12:18 AM 13.2°F-10.4°C 7.9°F-13.4°C 79% 15.0 mph S24.1 kmh S 21.0 mph33.8 kmh 30.32 in1026.8 mb 0.00 in0.0 mm 0.00 in/hr0.0 mm/hr 0.00 in0.0 mm
12:17 AM 13.2°F-10.4°C 7.9°F-13.4°C 79% 13.0 mph S20.9 kmh S 21.0 mph33.8 kmh 30.32 in1026.8 mb 0.00 in0.0 mm 0.00 in/hr0.0 mm/hr 0.00 in0.0 mm
12:16 AM 13.2°F-10.4°C 7.9°F-13.4°C 79% 14.0 mph S22.5 kmh S 21.0 mph33.8 kmh 30.32 in1026.8 mb 0.00 in0.0 mm 0.00 in/hr0.0 mm/hr 0.00 in0.0 mm
12:15 AM 13.2°F-10.4°C 7.9°F-13.4°C 79% 13.0 mph S20.9 kmh S 21.0 mph33.8 kmh 30.33 in1027.1 mb 0.00 in0.0 mm 0.00 in/hr0.0 mm/hr 0.00 in0.0 mm
12:14 AM 13.2°F-10.4°C 7.9°F-13.4°C 79% 16.0 mph S25.7 kmh S 21.0 mph33.8 kmh 30.33 in1027.1 mb 0.00 in0.0 mm 0.00 in/hr0.0 mm/hr 0.00 in0.0 mm
12:13 AM 13.2°F-10.4°C 7.9°F-13.4°C 79% 9.0 mph S14.5 kmh S 21.0 mph33.8 kmh 30.33 in1027.1 mb 0.00 in0.0 mm 0.00 in/hr0.0 mm/hr 0.00 in0.0 mm
12:12 AM 13.2°F-10.4°C 7.6°F-13.6°C 78% 17.0 mph SSE27.4 kmh SSE 21.0 mph33.8 kmh 30.33 in1027.1 mb 0.00 in0.0 mm 0.00 in/hr0.0 mm/hr 0.00 in0.0 mm
12:11 AM 13.2°F-10.4°C 7.9°F-13.4°C 79% 14.0 mph S22.5 kmh S 21.0 mph33.8 kmh 30.33 in1027.1 mb 0.00 in0.0 mm 0.00 in/hr0.0 mm/hr 0.00 in0.0 mm
12:10 AM 13.2°F-10.4°C 7.9°F-13.4°C 79% 12.0 mph S19.3 kmh S 21.0 mph33.8 kmh 30.33 in1027.1 mb 0.00 in0.0 mm 0.00 in/hr0.0 mm/hr 0.00 in0.0 mm
12:09 AM 13.2°F-10.4°C 7.9°F-13.4°C 79% 14.0 mph S22.5 kmh S 21.0 mph33.8 kmh 30.33 in1027.1 mb 0.00 in0.0 mm 0.00 in/hr0.0 mm/hr 0.00 in0.0 mm
12:08 AM 13.3°F-10.4°C 8.0°F-13.3°C 79% 15.0 mph S24.1 kmh S 21.0 mph33.8 kmh 30.33 in1027.1 mb 0.00 in0.0 mm 0.00 in/hr0.0 mm/hr 0.00 in0.0 mm
12:07 AM 13.3°F-10.4°C 8.0°F-13.3°C 79% 14.0 mph S22.5 kmh S 21.0 mph33.8 kmh 30.33 in1027.1 mb 0.00 in0.0 mm 0.00 in/hr0.0 mm/hr 0.00 in0.0 mm
12:06 AM 13.3°F-10.4°C 8.0°F-13.3°C 79% 12.0 mph S19.3 kmh S 21.0 mph33.8 kmh 30.33 in1027.1 mb 0.00 in0.0 mm 0.00 in/hr0.0 mm/hr 0.00 in0.0 mm
12:05 AM 13.3°F-10.4°C 8.0°F-13.3°C 79% 13.0 mph SSE20.9 kmh SSE 21.0 mph33.8 kmh 30.33 in1027.1 mb 0.00 in0.0 mm 0.00 in/hr0.0 mm/hr 0.00 in0.0 mm
12:04 AM 13.2°F-10.4°C 7.9°F-13.4°C 79% 12.0 mph S19.3 kmh S 21.0 mph33.8 kmh 30.33 in1027.1 mb 0.00 in0.0 mm 0.00 in/hr0.0 mm/hr 0.00 in0.0 mm
12:03 AM 13.3°F-10.4°C 8.0°F-13.3°C 79% 14.0 mph S22.5 kmh S 21.0 mph33.8 kmh 30.33 in1027.1 mb 0.00 in0.0 mm 0.00 in/hr0.0 mm/hr 0.00 in0.0 mm
12:02 AM 13.3°F-10.4°C 8.0°F-13.3°C 79% 10.0 mph S16.1 kmh S 17.0 mph27.4 kmh 30.33 in1027.1 mb 0.00 in0.0 mm 0.00 in/hr0.0 mm/hr 0.00 in0.0 mm
12:01 AM 13.3°F-10.4°C 8.0°F-13.3°C 79% 14.0 mph SSE22.5 kmh SSE 20.0 mph32.2 kmh 30.33 in1027.1 mb 0.00 in0.0 mm 0.00 in/hr0.0 mm/hr 0.00 in0.0 mm
12:00 AM 13.3°F-10.4°C 8.0°F-13.3°C 79% 12.0 mph S19.3 kmh S 20.0 mph32.2 kmh 30.33 in1027.1 mb 0.00 in0.0 mm 0.00 in/hr0.0 mm/hr 0.00 in0.0 mm